Time,TemperatureF,DewpointF,PressureIn,WindDirection,WindDirectionDegrees,WindSpeedMPH,WindSpeedGustMPH,Humidity,HourlyPrecipIn,Conditions,Clouds,dailyrainin,SoftwareType,DateUTC
2013-03-09 00:00:00,48.0,24.6,30.15,SE,125,0.7,2.9,40,-99.99,,,-99.99,WSDL version 423,2013-03-09 06:00:00,
2013-03-09 00:01:00,48.0,24.7,30.15,SE,135,0.1,2.9,41,-99.99,,,-99.99,WSDL version 423,2013-03-09 06:01:00,
2013-03-09 00:05:00,48.0,24.8,30.15,ENE,73,1.0,2.9,40,-99.99,,,-99.99,WSDL version 423,2013-03-09 06:05:00,
2013-03-09 00:06:00,48.0,24.7,30.15,ENE,68,1.3,2.9,40,-99.99,,,-99.99,WSDL version 423,2013-03-09 06:06:00,
2013-03-09 00:07:00,48.0,24.7,30.15,ENE,68,0.6,2.9,40,-99.99,,,-99.99,WSDL version 423,2013-03-09 06:07:00,
2013-03-09 00:11:00,48.1,24.7,30.15,ENE,68,0.0,2.2,40,-99.99,,,-99.99,WSDL version 423,2013-03-09 06:11:00,
2013-03-09 00:14:00,48.2,24.8,30.15,ENE,68,0.0,2.2,40,-99.99,,,-99.99,WSDL version 423,2013-03-09 06:14:00,
2013-03-09 00:15:00,48.2,24.8,30.15,ENE,68,0.0,1.6,40,-99.99,,,-99.99,WSDL version 423,2013-03-09 06:15:00,
2013-03-09 00:16:00,48.2,24.8,30.15,ENE,68,0.0,0.9,40,-99.99,,,-99.99,WSDL version 423,2013-03-09 06:16:00,
2013-03-09 00:17:00,48.2,24.8,30.15,ENE,68,0.0,1.1,40,-99.99,,,-99.99,WSDL version 423,2013-03-09 06:17:00,
2013-03-09 00:19:00,48.2,24.8,30.15,East,90,1.2,2.9,40,-99.99,,,-99.99,WSDL version 423,2013-03-09 06:19:00,
2013-03-09 00:22:00,48.1,24.7,30.15,ESE,121,0.4,2.9,40,-99.99,,,-99.99,WSDL version 423,2013-03-09 06:22:00,
2013-03-09 00:24:00,48.0,24.8,30.15,SE,132,0.4,2.9,41,-99.99,,,-99.99,WSDL version 423,2013-03-09 06:24:00,
2013-03-09 00:25:00,47.9,24.9,30.15,SE,141,0.3,2.9,41,-99.99,,,-99.99,WSDL version 423,2013-03-09 06:25:00,
2013-03-09 00:27:00,47.9,25.0,30.15,SE,127,0.0,2.9,41,-99.99,,,-99.99,WSDL version 423,2013-03-09 06:27:00,
2013-03-09 00:30:00,47.7,24.9,30.15,East,87,0.6,2.9,41,-99.99,,,-99.99,WSDL version 423,2013-03-09 06:30:00,
2013-03-09 00:31:00,47.7,24.9,30.15,ENE,68,1.6,2.9,41,-99.99,,,-99.99,WSDL version 423,2013-03-09 06:31:00,
2013-03-09 00:34:00,47.7,24.9,30.15,ESE,113,0.9,3.1,41,-99.99,,,-99.99,WSDL version 423,2013-03-09 06:34:00,
2013-03-09 00:36:00,47.8,25.0,30.15,ESE,113,0.0,3.1,41,-99.99,,,-99.99,WSDL version 423,2013-03-09 06:36:00,
2013-03-09 00:41:00,47.6,24.9,30.15,East,82,3.0,4.3,41,-99.99,,,-99.99,WSDL version 423,2013-03-09 06:41:00,
2013-03-09 00:42:00,47.6,24.9,30.15,East,88,2.0,4.3,41,-99.99,,,-99.99,WSDL version 423,2013-03-09 06:42:00,
2013-03-09 00:43:00,47.6,24.9,30.15,ESE,104,1.1,4.3,41,-99.99,,,-99.99,WSDL version 423,2013-03-09 06:43:00,
2013-03-09 00:46:00,47.7,24.9,30.12,East,95,1.2,4.3,41,-99.99,,,-99.99,WSDL version 423,2013-03-09 06:46:00,
2013-03-09 00:48:00,47.8,25.0,30.12,East,93,1.3,4.3,41,-99.99,,,-99.99,WSDL version 423,2013-03-09 06:48:00,
2013-03-09 00:51:00,47.8,25.0,30.12,SE,129,0.0,2.7,41,-99.99,,,-99.99,WSDL version 423,2013-03-09 06:51:00,
2013-03-09 00:52:00,47.8,25.0,30.12,ESE,123,0.0,2.7,41,-99.99,,,-99.99,WSDL version 423,2013-03-09 06:52:00,
2013-03-09 00:55:00,47.8,25.0,30.12,ESE,120,0.0,2.7,41,-99.99,,,-99.99,WSDL version 423,2013-03-09 06:55:00,
2013-03-09 00:56:00,47.7,24.9,30.12,ESE,122,0.5,2.7,41,-99.99,,,-99.99,WSDL version 423,2013-03-09 06:56:00,
2013-03-09 00:58:00,47.6,24.9,30.12,SE,127,0.4,2.5,41,-99.99,,,-99.99,WSDL version 423,2013-03-09 06:58:00,
2013-03-09 01:00:00,47.6,24.9,30.12,SE,130,0.5,2.5,41,-99.99,,,-99.99,WSDL version 423,2013-03-09 07:00:00,
2013-03-09 01:01:00,47.6,24.9,30.12,SE,125,0.5,2.5,41,-99.99,,,-99.99,WSDL version 423,2013-03-09 07:01:00,
2013-03-09 01:02:00,47.6,24.9,30.12,SE,135,0.4,2.5,41,-99.99,,,-99.99,WSDL version 423,2013-03-09 07:02:00,
2013-03-09 01:07:00,47.5,24.7,30.12,SE,125,0.0,1.6,41,-99.99,,,-99.99,WSDL version 423,2013-03-09 07:07:00,
2013-03-09 01:09:00,47.4,24.6,30.12,ESE,113,0.9,2.0,41,-99.99,,,-99.99,WSDL version 423,2013-03-09 07:09:00,
2013-03-09 01:10:00,47.3,24.6,30.12,ESE,115,0.9,2.0,41,-99.99,,,-99.99,WSDL version 423,2013-03-09 07:10:00,
2013-03-09 01:12:00,47.2,24.6,30.12,SE,140,0.0,2.0,41,-99.99,,,-99.99,WSDL version 423,2013-03-09 07:12:00,
2013-03-09 01:14:00,47.3,24.6,30.12,NNW,329,0.6,2.0,41,-99.99,,,-99.99,WSDL version 423,2013-03-09 07:14:00,
2013-03-09 01:16:00,47.2,24.4,30.12,ESE,109,0.0,2.0,41,-99.99,,,-99.99,WSDL version 423,2013-03-09 07:16:00,
2013-03-09 01:18:00,47.2,24.4,30.12,SE,130,0.4,2.0,41,-99.99,,,-99.99,WSDL version 423,2013-03-09 07:18:00,
2013-03-09 01:19:00,47.1,24.4,30.12,SE,131,0.9,1.3,41,-99.99,,,-99.99,WSDL version 423,2013-03-09 07:19:00,
2013-03-09 01:20:00,47.2,24.4,30.12,SE,126,0.5,1.3,41,-99.99,,,-99.99,WSDL version 423,2013-03-09 07:20:00,
2013-03-09 01:21:00,47.2,24.4,30.12,SE,124,0.1,1.3,41,-99.99,,,-99.99,WSDL version 423,2013-03-09 07:21:00,
2013-03-09 01:25:00,47.1,24.4,30.12,SE,124,0.0,1.3,41,-99.99,,,-99.99,WSDL version 423,2013-03-09 07:25:00,
2013-03-09 01:26:00,47.1,24.4,30.12,East,96,0.5,3.1,41,-99.99,,,-99.99,WSDL version 423,2013-03-09 07:26:00,
2013-03-09 01:27:00,47.1,24.3,30.12,East,84,1.4,3.1,41,-99.99,,,-99.99,WSDL version 423,2013-03-09 07:27:00,
2013-03-09 01:31:00,46.9,24.2,30.12,East,90,0.8,3.1,41,-99.99,,,-99.99,WSDL version 423,2013-03-09 07:31:00,
2013-03-09 01:32:00,46.9,24.2,30.12,ENE,78,0.1,3.1,41,-99.99,,,-99.99,WSDL version 423,2013-03-09 07:32:00,
2013-03-09 01:34:00,46.8,24.1,30.12,ENE,68,1.2,3.1,41,-99.99,,,-99.99,WSDL version 423,2013-03-09 07:34:00,
2013-03-09 01:36:00,46.7,24.0,30.12,East,90,0.2,3.1,41,-99.99,,,-99.99,WSDL version 423,2013-03-09 07:36:00,
2013-03-09 01:38:00,46.7,24.0,30.12,ESE,121,0.0,2.7,41,-99.99,,,-99.99,WSDL version 423,2013-03-09 07:38:00,
2013-03-09 01:41:00,46.7,24.1,30.12,ESE,116,0.0,2.5,41,-99.99,,,-99.99,WSDL version 423,2013-03-09 07:41:00,
2013-03-09 01:42:00,46.7,24.3,30.12,ESE,113,0.0,2.5,41,-99.99,,,-99.99,WSDL version 423,2013-03-09 07:42:00,
2013-03-09 01:44:00,46.7,24.5,30.12,SE,129,0.0,1.1,41,-99.99,,,-99.99,WSDL version 423,2013-03-09 07:44:00,
2013-03-09 01:48:00,46.7,24.7,30.12,East,90,0.5,1.3,42,-99.99,,,-99.99,WSDL version 423,2013-03-09 07:48:00,
2013-03-09 01:49:00,46.7,24.7,30.12,ESE,106,0.5,1.3,42,-99.99,,,-99.99,WSDL version 423,2013-03-09 07:49:00,
2013-03-09 01:51:00,46.7,25.0,30.12,ESE,121,0.1,1.3,42,-99.99,,,-99.99,WSDL version 423,2013-03-09 07:51:00,
2013-03-09 01:52:00,46.7,25.1,30.12,ESE,115,0.0,1.3,42,-99.99,,,-99.99,WSDL version 423,2013-03-09 07:52:00,
2013-03-09 01:56:00,46.7,25.1,30.12,ESE,116,0.5,1.6,42,-99.99,,,-99.99,WSDL version 423,2013-03-09 07:56:00,
2013-03-09 01:57:00,46.7,25.1,30.12,SE,141,0.4,1.6,42,-99.99,,,-99.99,WSDL version 423,2013-03-09 07:57:00,
2013-03-09 01:59:00,46.7,25.2,30.12,SE,135,0.0,1.6,43,-99.99,,,-99.99,WSDL version 423,2013-03-09 07:59:00,
2013-03-09 02:02:00,46.7,25.5,30.12,ESE,116,0.0,1.6,43,-99.99,,,-99.99,WSDL version 423,2013-03-09 08:02:00,
2013-03-09 02:04:00,46.7,25.6,30.12,ESE,118,0.8,1.6,43,-99.99,,,-99.99,WSDL version 423,2013-03-09 08:04:00,
2013-03-09 02:05:00,46.7,25.6,30.12,SE,129,1.1,1.6,43,-99.99,,,-99.99,WSDL version 423,2013-03-09 08:05:00,
2013-03-09 02:10:00,46.7,25.6,30.12,ESE,108,0.1,1.6,43,-99.99,,,-99.99,WSDL version 423,2013-03-09 08:10:00,
2013-03-09 02:11:00,46.7,25.6,30.12,East,100,0.0,1.6,43,-99.99,,,-99.99,WSDL version 423,2013-03-09 08:11:00,
2013-03-09 02:13:00,46.7,25.6,30.12,ESE,122,0.0,1.6,43,-99.99,,,-99.99,WSDL version 423,2013-03-09 08:13:00,
2013-03-09 02:15:00,46.6,25.5,30.12,SE,132,0.4,2.2,43,-99.99,,,-99.99,WSDL version 423,2013-03-09 08:15:00,
2013-03-09 02:18:00,46.6,25.4,30.12,SE,141,0.4,2.2,43,-99.99,,,-99.99,WSDL version 423,2013-03-09 08:18:00,
2013-03-09 02:19:00,46.6,25.4,30.12,SE,127,0.1,2.2,43,-99.99,,,-99.99,WSDL version 423,2013-03-09 08:19:00,
2013-03-09 02:21:00,46.6,25.4,30.12,ESE,115,0.0,2.2,43,-99.99,,,-99.99,WSDL version 423,2013-03-09 08:21:00,
2013-03-09 02:22:00,46.6,25.4,30.12,East,98,0.0,2.2,43,-99.99,,,-99.99,WSDL version 423,2013-03-09 08:22:00,
2013-03-09 02:25:00,46.6,25.4,30.12,ENE,68,1.4,2.5,43,-99.99,,,-99.99,WSDL version 423,2013-03-09 08:25:00,
2013-03-09 02:26:00,46.6,25.4,30.12,ENE,68,1.3,2.5,43,-99.99,,,-99.99,WSDL version 423,2013-03-09 08:26:00,
2013-03-09 02:30:00,46.6,25.4,30.12,ENE,76,1.2,2.9,43,-99.99,,,-99.99,WSDL version 423,2013-03-09 08:30:00,
2013-03-09 02:31:00,46.6,25.4,30.09,East,88,0.2,2.9,43,-99.99,,,-99.99,WSDL version 423,2013-03-09 08:31:00,
2013-03-09 02:32:00,46.6,25.4,30.09,ESE,108,0.0,2.9,43,-99.99,,,-99.99,WSDL version 423,2013-03-09 08:32:00,
2013-03-09 02:33:00,46.6,25.4,30.09,ESE,107,0.4,3.1,43,-99.99,,,-99.99,WSDL version 423,2013-03-09 08:33:00,
2013-03-09 02:36:00,46.6,25.4,30.09,East,90,0.4,3.1,43,-99.99,,,-99.99,WSDL version 423,2013-03-09 08:36:00,
2013-03-09 02:37:00,46.6,25.4,30.09,East,86,0.7,3.1,43,-99.99,,,-99.99,WSDL version 423,2013-03-09 08:37:00,
2013-03-09 02:38:00,46.6,25.4,30.09,SE,128,1.2,3.1,43,-99.99,,,-99.99,WSDL version 423,2013-03-09 08:38:00,
2013-03-09 02:40:00,46.6,25.4,30.09,SSE,152,0.2,3.1,43,-99.99,,,-99.99,WSDL version 423,2013-03-09 08:40:00,
2013-03-09 02:41:00,46.6,25.4,30.09,SE,135,0.0,3.1,43,-99.99,,,-99.99,WSDL version 423,2013-03-09 08:41:00,
2013-03-09 02:42:00,46.6,25.4,30.09,SE,125,0.0,3.1,43,-99.99,,,-99.99,WSDL version 423,2013-03-09 08:42:00,
2013-03-09 02:45:00,46.6,25.4,30.09,SE,125,0.1,2.9,43,-99.99,,,-99.99,WSDL version 423,2013-03-09 08:45:00,
2013-03-09 02:46:00,46.6,25.4,30.09,ESE,113,0.0,2.9,43,-99.99,,,-99.99,WSDL version 423,2013-03-09 08:46:00,
2013-03-09 02:48:00,46.6,25.4,30.09,ESE,123,0.0,1.6,43,-99.99,,,-99.99,WSDL version 423,2013-03-09 08:48:00,
2013-03-09 02:49:00,46.6,25.4,30.09,ESE,121,0.0,1.6,43,-99.99,,,-99.99,WSDL version 423,2013-03-09 08:49:00,
2013-03-09 02:53:00,46.4,25.3,30.09,ESE,115,0.0,1.3,43,-99.99,,,-99.99,WSDL version 423,2013-03-09 08:53:00,
2013-03-09 02:54:00,46.4,25.3,30.09,ESE,113,0.0,0.9,43,-99.99,,,-99.99,WSDL version 423,2013-03-09 08:54:00,
2013-03-09 02:55:00,46.4,25.2,30.09,ESE,115,0.0,0.9,43,-99.99,,,-99.99,WSDL version 423,2013-03-09 08:55:00,
2013-03-09 02:56:00,46.3,25.2,30.09,SE,130,0.0,1.3,43,-99.99,,,-99.99,WSDL version 423,2013-03-09 08:56:00,
2013-03-09 02:58:00,46.2,25.1,30.09,SE,132,0.0,1.3,43,-99.99,,,-99.99,WSDL version 423,2013-03-09 08:58:00,
2013-03-09 02:59:00,46.1,25.1,30.09,SE,135,0.0,1.3,43,-99.99,,,-99.99,WSDL version 423,2013-03-09 08:59:00,
2013-03-09 03:04:00,46.0,24.9,30.09,ESE,113,0.0,1.3,43,-99.99,,,-99.99,WSDL version 423,2013-03-09 09:04:00,
2013-03-09 03:05:00,46.0,24.9,30.09,ESE,113,0.0,1.3,43,-99.99,,,-99.99,WSDL version 423,2013-03-09 09:05:00,
2013-03-09 03:08:00,45.9,24.8,30.09,ESE,113,0.4,1.1,43,-99.99,,,-99.99,WSDL version 423,2013-03-09 09:08:00,
2013-03-09 03:10:00,45.8,24.8,30.09,East,100,0.0,2.2,43,-99.99,,,-99.99,WSDL version 423,2013-03-09 09:10:00,
2013-03-09 03:11:00,45.8,24.8,30.09,East,87,0.4,2.2,43,-99.99,,,-99.99,WSDL version 423,2013-03-09 09:11:00,
2013-03-09 03:15:00,45.8,24.8,30.09,East,90,0.0,2.2,43,-99.99,,,-99.99,WSDL version 423,2013-03-09 09:15:00,
2013-03-09 03:16:00,45.8,24.8,30.09,East,90,0.0,2.2,43,-99.99,,,-99.99,WSDL version 423,2013-03-09 09:16:00,
2013-03-09 03:17:00,45.8,24.8,30.09,East,98,0.0,2.2,43,-99.99,,,-99.99,WSDL version 423,2013-03-09 09:17:00,
2013-03-09 03:19:00,45.8,24.8,30.09,ESE,115,0.0,2.2,43,-99.99,,,-99.99,WSDL version 423,2013-03-09 09:19:00,
2013-03-09 03:22:00,45.8,24.8,30.09,SE,135,0.0,0.0,43,-99.99,,,-99.99,WSDL version 423,2013-03-09 09:22:00,
2013-03-09 03:24:00,45.8,24.8,30.09,SW,214,0.0,0.0,43,-99.99,,,-99.99,WSDL version 423,2013-03-09 09:24:00,
2013-03-09 03:25:00,45.8,24.8,30.09,SW,225,0.0,0.0,43,-99.99,,,-99.99,WSDL version 423,2013-03-09 09:25:00,
2013-03-09 03:29:00,45.8,24.8,30.09,ENE,68,0.8,2.0,43,-99.99,,,-99.99,WSDL version 423,2013-03-09 09:29:00,
2013-03-09 03:30:00,45.8,24.8,30.09,ENE,68,0.5,2.0,43,-99.99,,,-99.99,WSDL version 423,2013-03-09 09:30:00,
2013-03-09 03:31:00,45.8,24.8,30.09,ENE,68,0.1,2.5,43,-99.99,,,-99.99,WSDL version 423,2013-03-09 09:31:00,
2013-03-09 03:32:00,45.8,24.8,30.09,ENE,68,0.9,2.5,43,-99.99,,,-99.99,WSDL version 423,2013-03-09 09:32:00,
2013-03-09 03:37:00,45.8,24.8,30.09,ENE,68,0.0,2.5,43,-99.99,,,-99.99,WSDL version 423,2013-03-09 09:37:00,
2013-03-09 03:38:00,45.8,24.8,30.09,ENE,68,0.0,2.5,43,-99.99,,,-99.99,WSDL version 423,2013-03-09 09:38:00,
2013-03-09 03:41:00,45.8,24.8,30.09,ENE,73,0.0,1.6,43,-99.99,,,-99.99,WSDL version 423,2013-03-09 09:41:00,
2013-03-09 03:43:00,45.8,24.8,30.09,East,90,0.0,0.9,43,-99.99,,,-99.99,WSDL version 423,2013-03-09 09:43:00,
2013-03-09 03:45:00,45.8,24.8,30.09,ESE,110,0.0,0.9,43,-99.99,,,-99.99,WSDL version 423,2013-03-09 09:45:00,
2013-03-09 03:46:00,45.8,24.8,30.09,ESE,113,0.0,0.9,43,-99.99,,,-99.99,WSDL version 423,2013-03-09 09:46:00,
2013-03-09 03:50:00,45.8,24.8,30.09,ENE,68,0.7,1.6,43,-99.99,,,-99.99,WSDL version 423,2013-03-09 09:50:00,
2013-03-09 03:51:00,45.8,24.8,30.09,ENE,68,0.1,1.6,43,-99.99,,,-99.99,WSDL version 423,2013-03-09 09:51:00,
2013-03-09 03:52:00,45.8,24.8,30.09,ENE,68,0.0,1.6,43,-99.99,,,-99.99,WSDL version 423,2013-03-09 09:52:00,
2013-03-09 03:54:00,45.8,24.7,30.09,ENE,68,0.0,1.6,43,-99.99,,,-99.99,WSDL version 423,2013-03-09 09:54:00,
2013-03-09 03:56:00,45.7,24.6,30.09,ENE,68,0.0,1.6,43,-99.99,,,-99.99,WSDL version 423,2013-03-09 09:56:00,
2013-03-09 03:59:00,45.5,24.5,30.09,ENE,68,0.0,0.9,43,-99.99,,,-99.99,WSDL version 423,2013-03-09 09:59:00,
2013-03-09 04:02:00,45.4,24.4,30.09,ESE,118,0.0,0.9,43,-99.99,,,-99.99,WSDL version 423,2013-03-09 10:02:00,
2013-03-09 04:03:00,45.3,24.4,30.09,SE,128,0.0,1.1,44,-99.99,,,-99.99,WSDL version 423,2013-03-09 10:03:00,
2013-03-09 04:04:00,45.2,24.4,30.09,SE,135,0.0,1.1,44,-99.99,,,-99.99,WSDL version 423,2013-03-09 10:04:00,
2013-03-09 04:06:00,45.1,24.5,30.09,SE,135,0.0,1.1,44,-99.99,,,-99.99,WSDL version 423,2013-03-09 10:06:00,
2013-03-09 04:08:00,45.0,24.5,30.09,SE,124,0.0,1.3,44,-99.99,,,-99.99,WSDL version 423,2013-03-09 10:08:00,
2013-03-09 04:09:00,45.0,24.5,30.09,SE,125,0.0,1.3,44,-99.99,,,-99.99,WSDL version 423,2013-03-09 10:09:00,
2013-03-09 04:11:00,44.9,24.5,30.09,ESE,121,0.0,1.3,44,-99.99,,,-99.99,WSDL version 423,2013-03-09 10:11:00,
2013-03-09 04:13:00,44.9,24.5,30.09,SE,130,0.0,1.3,44,-99.99,,,-99.99,WSDL version 423,2013-03-09 10:13:00,
2013-03-09 04:14:00,44.9,24.5,30.09,SE,135,0.0,1.3,44,-99.99,,,-99.99,WSDL version 423,2013-03-09 10:14:00,
2013-03-09 04:16:00,44.9,24.5,30.09,SE,128,0.0,1.3,44,-99.99,,,-99.99,WSDL version 423,2013-03-09 10:16:00,
2013-03-09 04:18:00,44.9,24.5,30.09,ESE,122,0.0,1.1,44,-99.99,,,-99.99,WSDL version 423,2013-03-09 10:18:00,
2013-03-09 04:20:00,44.9,24.5,30.09,ESE,113,0.0,1.1,45,-99.99,,,-99.99,WSDL version 423,2013-03-09 10:20:00,
2013-03-09 04:22:00,44.9,24.8,30.09,ESE,122,0.0,1.1,45,-99.99,,,-99.99,WSDL version 423,2013-03-09 10:22:00,
2013-03-09 04:23:00,44.9,24.9,30.09,SSE,155,0.0,1.1,45,-99.99,,,-99.99,WSDL version 423,2013-03-09 10:23:00,
2013-03-09 04:25:00,44.9,25.0,30.09,SE,135,0.0,0.9,45,-99.99,,,-99.99,WSDL version 423,2013-03-09 10:25:00,
2013-03-09 04:27:00,44.9,25.0,30.09,East,96,0.0,1.1,45,-99.99,,,-99.99,WSDL version 423,2013-03-09 10:27:00,
2013-03-09 04:31:00,44.9,24.9,30.09,ESE,115,0.0,2.2,44,-99.99,,,-99.99,WSDL version 423,2013-03-09 10:31:00,
2013-03-09 04:32:00,44.9,24.8,30.09,East,90,0.3,2.2,44,-99.99,,,-99.99,WSDL version 423,2013-03-09 10:32:00,
2013-03-09 04:34:00,44.9,24.7,30.09,East,90,0.1,2.2,44,-99.99,,,-99.99,WSDL version 423,2013-03-09 10:34:00,
2013-03-09 04:37:00,44.9,24.6,30.09,East,90,0.0,2.2,44,-99.99,,,-99.99,WSDL version 423,2013-03-09 10:37:00,
2013-03-09 04:40:00,44.9,24.5,30.09,East,90,0.4,2.2,44,-99.99,,,-99.99,WSDL version 423,2013-03-09 10:40:00,
2013-03-09 04:41:00,44.9,24.5,30.09,East,90,0.4,1.1,44,-99.99,,,-99.99,WSDL version 423,2013-03-09 10:41:00,
2013-03-09 04:43:00,44.9,24.5,30.09,North,360,0.6,1.3,44,-99.99,,,-99.99,WSDL version 423,2013-03-09 10:43:00,
2013-03-09 04:46:00,45.0,24.5,30.09,ENE,68,0.9,2.0,44,-99.99,,,-99.99,WSDL version 423,2013-03-09 10:46:00,
2013-03-09 04:47:00,45.0,24.5,30.09,ENE,68,0.2,2.0,44,-99.99,,,-99.99,WSDL version 423,2013-03-09 10:47:00,
2013-03-09 04:51:00,44.9,24.6,30.09,ENE,68,0.4,2.0,44,-99.99,,,-99.99,WSDL version 423,2013-03-09 10:51:00,
2013-03-09 04:52:00,44.9,24.6,30.09,ENE,68,0.4,2.0,44,-99.99,,,-99.99,WSDL version 423,2013-03-09 10:52:00,
2013-03-09 04:56:00,44.9,24.5,30.09,East,90,0.7,2.0,44,-99.99,,,-99.99,WSDL version 423,2013-03-09 10:56:00,
2013-03-09 04:58:00,44.9,24.6,30.09,East,90,0.0,2.0,45,-99.99,,,-99.99,WSDL version 423,2013-03-09 10:58:00,
2013-03-09 04:59:00,44.9,24.6,30.09,East,90,0.0,2.0,44,-99.99,,,-99.99,WSDL version 423,2013-03-09 10:59:00,
2013-03-09 05:00:00,44.9,24.7,30.09,East,90,0.0,2.0,45,-99.99,,,-99.99,WSDL version 423,2013-03-09 11:00:00,
2013-03-09 05:04:00,44.9,25.0,30.09,East,90,0.0,1.3,45,-99.99,,,-99.99,WSDL version 423,2013-03-09 11:04:00,
2013-03-09 05:05:00,44.9,25.0,30.09,East,90,0.0,1.3,45,-99.99,,,-99.99,WSDL version 423,2013-03-09 11:05:00,
2013-03-09 05:07:00,44.9,25.0,30.09,East,84,0.0,1.3,45,-99.99,,,-99.99,WSDL version 423,2013-03-09 11:07:00,
2013-03-09 05:09:00,44.9,25.0,30.09,East,80,0.4,2.5,45,-99.99,,,-99.99,WSDL version 423,2013-03-09 11:09:00,
2013-03-09 05:14:00,45.0,25.0,30.09,ESE,118,0.0,2.5,45,-99.99,,,-99.99,WSDL version 423,2013-03-09 11:14:00,
2013-03-09 05:15:00,45.0,25.1,30.09,SE,129,0.0,2.5,45,-99.99,,,-99.99,WSDL version 423,2013-03-09 11:15:00,
2013-03-09 05:16:00,45.1,25.1,30.09,SE,143,0.0,2.5,45,-99.99,,,-99.99,WSDL version 423,2013-03-09 11:16:00,
2013-03-09 05:17:00,45.1,25.1,30.09,SE,138,0.3,2.5,45,-99.99,,,-99.99,WSDL version 423,2013-03-09 11:17:00,
2013-03-09 05:21:00,45.0,25.4,30.09,SE,125,0.4,1.3,46,-99.99,,,-99.99,WSDL version 423,2013-03-09 11:21:00,
2013-03-09 05:23:00,44.9,25.4,30.09,SE,133,0.9,2.0,46,-99.99,,,-99.99,WSDL version 423,2013-03-09 11:23:00,
2013-03-09 05:26:00,44.9,25.4,30.09,ESE,113,0.4,2.0,46,-99.99,,,-99.99,WSDL version 423,2013-03-09 11:26:00,
2013-03-09 05:27:00,44.9,25.4,30.09,ESE,107,0.4,2.0,46,-99.99,,,-99.99,WSDL version 423,2013-03-09 11:27:00,
2013-03-09 05:28:00,44.9,25.4,30.09,SE,141,0.9,2.0,46,-99.99,,,-99.99,WSDL version 423,2013-03-09 11:28:00,
2013-03-09 05:29:00,44.9,25.4,30.09,SE,133,0.5,2.0,46,-99.99,,,-99.99,WSDL version 423,2013-03-09 11:29:00,
2013-03-09 05:32:00,44.9,25.4,30.09,ESE,121,0.0,2.0,46,-99.99,,,-99.99,WSDL version 423,2013-03-09 11:32:00,
2013-03-09 05:33:00,44.9,25.4,30.09,SE,138,0.4,2.0,46,-99.99,,,-99.99,WSDL version 423,2013-03-09 11:33:00,
2013-03-09 05:36:00,44.9,25.4,30.09,SE,125,0.0,1.3,46,-99.99,,,-99.99,WSDL version 423,2013-03-09 11:36:00,
2013-03-09 05:40:00,44.9,25.4,30.09,SE,135,0.0,1.3,46,-99.99,,,-99.99,WSDL version 423,2013-03-09 11:40:00,
2013-03-09 05:43:00,44.9,25.4,30.09,SE,135,0.0,1.1,46,-99.99,,,-99.99,WSDL version 423,2013-03-09 11:43:00,
2013-03-09 05:45:00,44.9,25.4,30.09,ESE,116,0.0,1.1,46,-99.99,,,-99.99,WSDL version 423,2013-03-09 11:45:00,
2013-03-09 05:46:00,44.9,25.4,30.09,SE,132,0.0,1.1,46,-99.99,,,-99.99,WSDL version 423,2013-03-09 11:46:00,
2013-03-09 05:50:00,44.8,25.3,30.09,ESE,123,0.9,2.0,46,-99.99,,,-99.99,WSDL version 423,2013-03-09 11:50:00,
2013-03-09 05:51:00,44.8,25.3,30.09,SE,130,1.2,2.0,46,-99.99,,,-99.99,WSDL version 423,2013-03-09 11:51:00,
2013-03-09 05:55:00,44.7,25.2,30.09,SE,135,0.0,2.0,46,-99.99,,,-99.99,WSDL version 423,2013-03-09 11:55:00,
2013-03-09 05:56:00,44.7,25.2,30.09,SE,143,0.4,2.0,46,-99.99,,,-99.99,WSDL version 423,2013-03-09 11:56:00,
2013-03-09 05:57:00,44.7,25.2,30.09,SE,130,0.4,2.0,46,-99.99,,,-99.99,WSDL version 423,2013-03-09 11:57:00,
2013-03-09 06:00:00,44.8,25.3,30.06,ESE,113,0.5,2.0,46,-99.99,,,-99.99,WSDL version 423,2013-03-09 12:00:00,
2013-03-09 06:01:00,44.8,25.3,30.06,SE,129,0.1,1.3,46,-99.99,,,-99.99,WSDL version 423,2013-03-09 12:01:00,
2013-03-09 06:06:00,44.8,25.3,30.06,SE,132,0.0,3.4,46,-99.99,,,-99.99,WSDL version 423,2013-03-09 12:06:00,
2013-03-09 06:07:00,44.9,25.5,30.06,ESE,118,0.0,3.4,47,-99.99,,,-99.99,WSDL version 423,2013-03-09 12:07:00,
2013-03-09 06:10:00,44.9,25.6,30.06,SE,143,0.0,3.4,46,-99.99,,,-99.99,WSDL version 423,2013-03-09 12:10:00,
2013-03-09 06:11:00,44.9,25.6,30.06,SE,135,0.0,3.4,46,-99.99,,,-99.99,WSDL version 423,2013-03-09 12:11:00,
2013-03-09 06:13:00,45.0,25.6,30.06,SE,131,0.6,2.0,47,-99.99,,,-99.99,WSDL version 423,2013-03-09 12:13:00,
2013-03-09 06:14:00,45.0,25.7,30.06,SE,132,0.6,2.0,47,-99.99,,,-99.99,WSDL version 423,2013-03-09 12:14:00,
2013-03-09 06:16:00,45.1,25.7,30.09,ESE,113,0.0,2.0,46,-99.99,,,-99.99,WSDL version 423,2013-03-09 12:16:00,
2013-03-09 06:18:00,45.1,25.7,30.09,ESE,115,0.0,2.2,46,-99.99,,,-99.99,WSDL version 423,2013-03-09 12:18:00,
2013-03-09 06:19:00,45.2,25.6,30.09,ESE,123,0.5,2.2,46,-99.99,,,-99.99,WSDL version 423,2013-03-09 12:19:00,
2013-03-09 06:21:00,45.2,25.7,30.09,East,101,0.5,2.2,46,-99.99,,,-99.99,WSDL version 423,2013-03-09 12:21:00,
2013-03-09 06:23:00,45.3,25.8,30.09,East,93,0.4,2.2,46,-99.99,,,-99.99,WSDL version 423,2013-03-09 12:23:00,
2013-03-09 06:24:00,45.3,25.8,30.09,ESE,113,0.6,2.2,46,-99.99,,,-99.99,WSDL version 423,2013-03-09 12:24:00,
2013-03-09 06:25:00,45.3,25.8,30.09,ESE,113,0.1,2.2,46,-99.99,,,-99.99,WSDL version 423,2013-03-09 12:25:00,
2013-03-09 06:26:00,45.3,25.8,30.09,ESE,113,0.0,2.2,46,-99.99,,,-99.99,WSDL version 423,2013-03-09 12:26:00,
2013-03-09 06:29:00,45.4,25.9,30.09,SSE,149,0.0,2.0,46,-99.99,,,-99.99,WSDL version 423,2013-03-09 12:29:00,
2013-03-09 06:30:00,45.4,25.9,30.09,SE,146,0.0,2.0,46,-99.99,,,-99.99,WSDL version 423,2013-03-09 12:30:00,
2013-03-09 06:33:00,45.5,25.9,30.09,SE,128,0.3,1.3,46,-99.99,,,-99.99,WSDL version 423,2013-03-09 12:33:00,
2013-03-09 06:34:00,45.5,25.9,30.09,SE,135,0.9,1.3,46,-99.99,,,-99.99,WSDL version 423,2013-03-09 12:34:00,
2013-03-09 06:35:00,45.5,25.9,30.09,SE,131,0.9,1.3,46,-99.99,,,-99.99,WSDL version 423,2013-03-09 12:35:00,
2013-03-09 06:37:00,45.5,25.9,30.09,ESE,113,0.1,1.3,46,-99.99,,,-99.99,WSDL version 423,2013-03-09 12:37:00,
2013-03-09 06:40:00,45.6,26.0,30.09,SE,138,0.3,2.0,46,-99.99,,,-99.99,WSDL version 423,2013-03-09 12:40:00,
2013-03-09 06:41:00,45.6,26.0,30.09,SE,135,0.5,2.0,46,-99.99,,,-99.99,WSDL version 423,2013-03-09 12:41:00,
2013-03-09 06:42:00,45.6,26.1,30.09,SE,135,0.1,2.0,46,-99.99,,,-99.99,WSDL version 423,2013-03-09 12:42:00,
2013-03-09 06:46:00,45.7,26.1,30.09,SE,129,0.0,2.0,46,-99.99,,,-99.99,WSDL version 423,2013-03-09 12:46:00,
2013-03-09 06:48:00,45.7,26.1,30.09,ESE,122,0.6,2.0,46,-99.99,,,-99.99,WSDL version 423,2013-03-09 12:48:00,
2013-03-09 06:50:00,45.7,26.1,30.09,SE,129,0.4,1.3,46,-99.99,,,-99.99,WSDL version 423,2013-03-09 12:50:00,
2013-03-09 06:52:00,45.7,26.1,30.09,SE,141,0.1,1.3,46,-99.99,,,-99.99,WSDL version 423,2013-03-09 12:52:00,
2013-03-09 06:54:00,45.7,26.1,30.09,ESE,115,0.0,1.3,46,-99.99,,,-99.99,WSDL version 423,2013-03-09 12:54:00,
2013-03-09 06:55:00,45.7,26.1,30.09,ESE,106,0.0,1.3,46,-99.99,,,-99.99,WSDL version 423,2013-03-09 12:55:00,
2013-03-09 06:57:00,45.7,26.1,30.09,ESE,120,0.0,1.3,46,-99.99,,,-99.99,WSDL version 423,2013-03-09 12:57:00,
2013-03-09 07:00:00,45.8,26.2,30.09,East,90,0.0,1.1,46,-99.99,,,-99.99,WSDL version 423,2013-03-09 13:00:00,
2013-03-09 07:01:00,45.8,26.2,30.09,East,100,0.0,1.1,46,-99.99,,,-99.99,WSDL version 423,2013-03-09 13:01:00,
2013-03-09 07:03:00,45.8,26.3,30.09,SE,124,0.0,1.1,46,-99.99,,,-99.99,WSDL version 423,2013-03-09 13:03:00,
2013-03-09 07:06:00,45.8,26.3,30.09,SE,135,0.0,1.1,46,-99.99,,,-99.99,WSDL version 423,2013-03-09 13:06:00,
2013-03-09 07:08:00,45.8,26.3,30.09,SE,135,0.0,0.9,46,-99.99,,,-99.99,WSDL version 423,2013-03-09 13:08:00,
2013-03-09 07:10:00,45.9,26.3,30.09,SE,135,0.0,0.9,46,-99.99,,,-99.99,WSDL version 423,2013-03-09 13:10:00,
2013-03-09 07:11:00,45.9,26.3,30.09,SE,135,0.0,0.9,46,-99.99,,,-99.99,WSDL version 423,2013-03-09 13:11:00,
2013-03-09 07:12:00,46.0,26.4,30.09,SE,135,0.0,0.9,46,-99.99,,,-99.99,WSDL version 423,2013-03-09 13:12:00,
2013-03-09 07:14:00,46.0,26.4,30.09,SE,135,0.0,0.9,46,-99.99,,,-99.99,WSDL version 423,2013-03-09 13:14:00,
2013-03-09 07:16:00,46.0,26.4,30.09,SE,135,0.0,0.9,46,-99.99,,,-99.99,WSDL version 423,2013-03-09 13:16:00,
2013-03-09 07:20:00,46.1,26.5,30.09,ESE,118,0.0,1.6,46,-99.99,,,-99.99,WSDL version 423,2013-03-09 13:20:00,
2013-03-09 07:21:00,46.2,26.6,30.09,ESE,113,0.0,1.6,46,-99.99,,,-99.99,WSDL version 423,2013-03-09 13:21:00,
2013-03-09 07:24:00,46.3,26.7,30.09,SE,129,0.0,1.6,46,-99.99,,,-99.99,WSDL version 423,2013-03-09 13:24:00,
2013-03-09 07:25:00,46.3,26.7,30.09,ESE,122,0.3,1.6,46,-99.99,,,-99.99,WSDL version 423,2013-03-09 13:25:00,
2013-03-09 07:27:00,46.4,26.8,30.09,ESE,113,0.0,2.0,46,-99.99,,,-99.99,WSDL version 423,2013-03-09 13:27:00,
2013-03-09 07:31:00,46.6,26.9,30.09,South,176,1.0,2.0,46,-99.99,,,-99.99,WSDL version 423,2013-03-09 13:31:00,
2013-03-09 07:33:00,46.6,26.9,30.09,ESE,119,0.5,2.0,46,-99.99,,,-99.99,WSDL version 423,2013-03-09 13:33:00,
2013-03-09 07:34:00,46.6,26.9,30.09,ESE,119,0.5,2.0,46,-99.99,,,-99.99,WSDL version 423,2013-03-09 13:34:00,
2013-03-09 07:36:00,46.7,27.0,30.09,SE,141,0.3,2.0,46,-99.99,,,-99.99,WSDL version 423,2013-03-09 13:36:00,
2013-03-09 07:39:00,46.7,27.1,30.09,SE,127,0.3,1.6,46,-99.99,,,-99.99,WSDL version 423,2013-03-09 13:39:00,
2013-03-09 07:42:00,46.8,27.1,30.09,ESE,108,0.4,1.6,46,-99.99,,,-99.99,WSDL version 423,2013-03-09 13:42:00,
2013-03-09 07:44:00,46.8,27.2,30.09,SE,132,0.0,1.6,46,-99.99,,,-99.99,WSDL version 423,2013-03-09 13:44:00,
2013-03-09 07:46:00,47.0,27.3,30.09,SE,132,0.0,1.6,46,-99.99,,,-99.99,WSDL version 423,2013-03-09 13:46:00,
2013-03-09 07:49:00,47.1,27.4,30.09,ESE,118,0.4,1.6,46,-99.99,,,-99.99,WSDL version 423,2013-03-09 13:49:00,
2013-03-09 07:50:00,47.1,27.4,30.09,ESE,120,0.1,1.3,46,-99.99,,,-99.99,WSDL version 423,2013-03-09 13:50:00,
2013-03-09 07:54:00,47.4,27.5,30.09,ESE,106,1.1,2.5,45,-99.99,,,-99.99,WSDL version 423,2013-03-09 13:54:00,
2013-03-09 07:55:00,47.5,27.5,30.09,ESE,113,1.0,2.5,45,-99.99,,,-99.99,WSDL version 423,2013-03-09 13:55:00,
2013-03-09 07:58:00,47.6,27.4,30.09,SE,135,0.9,2.5,45,-99.99,,,-99.99,WSDL version 423,2013-03-09 13:58:00,
2013-03-09 07:59:00,47.7,27.4,30.09,SE,124,0.9,2.5,45,-99.99,,,-99.99,WSDL version 423,2013-03-09 13:59:00,
2013-03-09 08:03:00,48.0,27.7,30.09,East,98,0.4,1.6,44,-99.99,,,-99.99,WSDL version 423,2013-03-09 14:03:00,
2013-03-09 08:04:00,48.1,27.8,30.09,East,86,0.8,2.2,45,-99.99,,,-99.99,WSDL version 423,2013-03-09 14:04:00,
2013-03-09 08:06:00,48.3,27.9,30.09,SE,125,1.1,2.2,44,-99.99,,,-99.99,WSDL version 423,2013-03-09 14:06:00,
2013-03-09 08:07:00,48.4,27.9,30.09,SE,139,1.0,2.2,45,-99.99,,,-99.99,WSDL version 423,2013-03-09 14:07:00,
2013-03-09 08:10:00,48.7,28.0,30.09,ESE,121,0.1,2.2,44,-99.99,,,-99.99,WSDL version 423,2013-03-09 14:10:00,
2013-03-09 08:11:00,48.8,28.0,30.09,SE,141,0.0,2.2,44,-99.99,,,-99.99,WSDL version 423,2013-03-09 14:11:00,
2013-03-09 08:13:00,48.8,27.8,30.09,SE,141,0.4,2.2,43,-99.99,,,-99.99,WSDL version 423,2013-03-09 14:13:00,
2013-03-09 08:14:00,48.9,27.8,30.09,SE,143,0.4,2.2,43,-99.99,,,-99.99,WSDL version 423,2013-03-09 14:14:00,
2013-03-09 08:15:00,49.0,27.7,30.09,SSE,150,0.1,2.2,43,-99.99,,,-99.99,WSDL version 423,2013-03-09 14:15:00,
2013-03-09 08:20:00,49.2,27.9,30.09,ESE,122,0.1,2.2,43,-99.99,,,-99.99,WSDL version 423,2013-03-09 14:20:00,
2013-03-09 08:21:00,49.3,27.9,30.09,SE,125,0.0,2.2,43,-99.99,,,-99.99,WSDL version 423,2013-03-09 14:21:00,
2013-03-09 08:25:00,49.6,28.2,30.09,SSE,148,0.9,2.2,43,-99.99,,,-99.99,WSDL version 423,2013-03-09 14:25:00,
2013-03-09 08:27:00,49.7,28.3,30.09,SE,138,0.1,2.0,43,-99.99,,,-99.99,WSDL version 423,2013-03-09 14:27:00,
2013-03-09 08:28:00,49.7,28.3,30.09,SE,127,0.0,2.0,43,-99.99,,,-99.99,WSDL version 423,2013-03-09 14:28:00,
2013-03-09 08:29:00,49.8,28.3,30.09,ESE,120,0.0,2.0,42,-99.99,,,-99.99,WSDL version 423,2013-03-09 14:29:00,
2013-03-09 08:31:00,49.8,28.2,30.09,SE,138,0.4,2.0,42,-99.99,,,-99.99,WSDL version 423,2013-03-09 14:31:00,
2013-03-09 08:33:00,49.9,28.0,30.09,SE,138,0.4,1.6,42,-99.99,,,-99.99,WSDL version 423,2013-03-09 14:33:00,
2013-03-09 08:36:00,50.0,28.0,30.09,SE,130,0.6,2.2,42,-99.99,,,-99.99,WSDL version 423,2013-03-09 14:36:00,
2013-03-09 08:37:00,50.0,28.0,30.09,SSE,158,0.4,2.2,42,-99.99,,,-99.99,WSDL version 423,2013-03-09 14:37:00,
2013-03-09 08:38:00,50.0,28.0,30.09,SE,135,0.9,2.7,42,-99.99,,,-99.99,WSDL version 423,2013-03-09 14:38:00,
2013-03-09 08:42:00,50.1,28.1,30.09,SE,135,0.0,2.7,42,-99.99,,,-99.99,WSDL version 423,2013-03-09 14:42:00,
2013-03-09 08:44:00,50.1,28.2,30.09,SE,131,0.0,2.7,42,-99.99,,,-99.99,WSDL version 423,2013-03-09 14:44:00,
2013-03-09 08:48:00,50.3,27.9,30.09,SE,135,1.0,2.5,41,-99.99,,,-99.99,WSDL version 423,2013-03-09 14:48:00,
2013-03-09 08:50:00,50.3,27.9,30.09,ESE,119,0.1,2.5,41,-99.99,,,-99.99,WSDL version 423,2013-03-09 14:50:00,
2013-03-09 08:51:00,50.4,28.0,30.09,SE,135,0.0,2.5,41,-99.99,,,-99.99,WSDL version 423,2013-03-09 14:51:00,
2013-03-09 08:53:00,50.5,28.1,30.09,SE,143,0.0,2.5,41,-99.99,,,-99.99,WSDL version 423,2013-03-09 14:53:00,
2013-03-09 08:56:00,50.8,28.2,30.09,ESE,115,0.9,2.0,41,-99.99,,,-99.99,WSDL version 423,2013-03-09 14:56:00,
2013-03-09 08:58:00,51.0,28.3,30.09,ESE,103,0.1,1.3,41,-99.99,,,-99.99,WSDL version 423,2013-03-09 14:58:00,
2013-03-09 08:59:00,51.1,28.3,30.09,ESE,113,0.0,1.3,41,-99.99,,,-99.99,WSDL version 423,2013-03-09 14:59:00,
2013-03-09 09:02:00,51.4,28.3,30.09,ESE,113,0.0,1.3,41,-99.99,,,-99.99,WSDL version 423,2013-03-09 15:02:00,
2013-03-09 09:04:00,51.6,28.4,30.09,ESE,121,0.0,1.6,40,-99.99,,,-99.99,WSDL version 423,2013-03-09 15:04:00,
2013-03-09 09:06:00,51.8,28.3,30.09,SE,135,0.3,1.6,40,-99.99,,,-99.99,WSDL version 423,2013-03-09 15:06:00,
2013-03-09 09:08:00,51.9,28.1,30.09,East,98,1.0,2.0,40,-99.99,,,-99.99,WSDL version 423,2013-03-09 15:08:00,
2013-03-09 09:09:00,52.0,28.2,30.09,East,101,1.0,2.0,40,-99.99,,,-99.99,WSDL version 423,2013-03-09 15:09:00,
2013-03-09 09:11:00,52.1,28.3,30.09,SE,129,1.0,2.2,40,-99.99,,,-99.99,WSDL version 423,2013-03-09 15:11:00,
2013-03-09 09:13:00,52.2,28.4,30.09,ESE,113,0.4,2.2,40,-99.99,,,-99.99,WSDL version 423,2013-03-09 15:13:00,
2013-03-09 09:14:00,52.2,28.3,30.09,SE,125,0.1,2.2,39,-99.99,,,-99.99,WSDL version 423,2013-03-09 15:14:00,
2013-03-09 09:16:00,52.2,28.1,30.09,ESE,113,0.6,2.2,39,-99.99,,,-99.99,WSDL version 423,2013-03-09 15:16:00,
2013-03-09 09:18:00,52.3,27.9,30.09,ESE,108,0.8,2.2,38,-99.99,,,-99.99,WSDL version 423,2013-03-09 15:18:00,
2013-03-09 09:20:00,52.4,27.7,30.09,SSE,153,1.1,2.0,38,-99.99,,,-99.99,WSDL version 423,2013-03-09 15:20:00,
2013-03-09 09:21:00,52.5,27.7,30.09,SE,139,0.6,1.6,38,-99.99,,,-99.99,WSDL version 423,2013-03-09 15:21:00,
2013-03-09 09:24:00,52.6,27.7,30.09,SE,131,1.2,2.5,38,-99.99,,,-99.99,WSDL version 423,2013-03-09 15:24:00,
2013-03-09 09:27:00,52.9,27.8,30.09,SE,126,1.5,2.5,37,-99.99,,,-99.99,WSDL version 423,2013-03-09 15:27:00,
2013-03-09 09:29:00,53.1,27.8,30.09,SE,126,1.1,2.5,37,-99.99,,,-99.99,WSDL version 423,2013-03-09 15:29:00,
2013-03-09 09:30:00,53.2,27.8,30.09,ESE,118,1.0,2.5,37,-99.99,,,-99.99,WSDL version 423,2013-03-09 15:30:00,
2013-03-09 09:33:00,53.6,27.9,30.09,ESE,113,0.9,2.5,37,-99.99,,,-99.99,WSDL version 423,2013-03-09 15:33:00,
2013-03-09 09:36:00,53.9,28.1,30.09,SE,124,1.2,2.5,36,-99.99,,,-99.99,WSDL version 423,2013-03-09 15:36:00,
2013-03-09 09:38:00,54.0,27.9,30.09,ESE,113,1.4,2.5,36,-99.99,,,-99.99,WSDL version 423,2013-03-09 15:38:00,
2013-03-09 09:41:00,54.1,27.7,30.09,SSE,166,1.0,2.5,36,-99.99,,,-99.99,WSDL version 423,2013-03-09 15:41:00,
2013-03-09 09:45:00,54.2,27.6,30.06,SE,144,1.1,2.5,35,-99.99,,,-99.99,WSDL version 423,2013-03-09 15:45:00,
2013-03-09 09:46:00,54.2,27.5,30.06,SE,141,1.1,1.6,35,-99.99,,,-99.99,WSDL version 423,2013-03-09 15:46:00,
2013-03-09 09:47:00,54.2,27.3,30.06,SE,143,1.1,1.6,35,-99.99,,,-99.99,WSDL version 423,2013-03-09 15:47:00,
2013-03-09 09:51:00,54.4,27.3,30.06,SE,146,0.6,2.0,35,-99.99,,,-99.99,WSDL version 423,2013-03-09 15:51:00,
2013-03-09 09:52:00,54.4,27.3,30.06,SE,143,0.3,2.0,35,-99.99,,,-99.99,WSDL version 423,2013-03-09 15:52:00,
2013-03-09 09:54:00,54.5,27.4,30.06,SSE,158,0.7,2.0,35,-99.99,,,-99.99,WSDL version 423,2013-03-09 15:54:00,
2013-03-09 09:55:00,54.6,27.5,30.06,SSE,158,0.6,2.0,35,-99.99,,,-99.99,WSDL version 423,2013-03-09 15:55:00,
2013-03-09 09:57:00,54.7,27.6,30.06,SE,131,0.5,2.0,35,-99.99,,,-99.99,WSDL version 423,2013-03-09 15:57:00,
2013-03-09 09:58:00,54.8,27.7,30.06,ESE,116,0.1,1.6,35,-99.99,,,-99.99,WSDL version 423,2013-03-09 15:58:00,
2013-03-09 10:00:00,54.8,27.4,30.06,ESE,113,1.0,2.7,34,-99.99,,,-99.99,WSDL version 423,2013-03-09 16:00:00,
2013-03-09 10:03:00,55.0,27.1,30.06,ESE,120,1.2,2.7,34,-99.99,,,-99.99,WSDL version 423,2013-03-09 16:03:00,
2013-03-09 10:05:00,55.1,27.2,30.06,SSE,165,0.0,2.7,34,-99.99,,,-99.99,WSDL version 423,2013-03-09 16:05:00,
2013-03-09 10:06:00,55.1,27.4,30.06,SE,144,0.0,2.7,35,-99.99,,,-99.99,WSDL version 423,2013-03-09 16:06:00,
2013-03-09 10:11:00,55.7,28.1,30.06,SSE,150,0.9,1.3,34,-99.99,,,-99.99,WSDL version 423,2013-03-09 16:11:00,
2013-03-09 10:12:00,55.7,28.0,30.06,SE,135,0.3,1.3,34,-99.99,,,-99.99,WSDL version 423,2013-03-09 16:12:00,
2013-03-09 10:13:00,55.8,28.0,30.06,SSE,149,0.0,1.3,34,-99.99,,,-99.99,WSDL version 423,2013-03-09 16:13:00,
2013-03-09 10:15:00,56.0,28.1,30.09,SSE,150,0.0,1.3,34,-99.99,,,-99.99,WSDL version 423,2013-03-09 16:15:00,
2013-03-09 10:18:00,56.4,28.4,30.09,SE,135,0.0,1.3,34,-99.99,,,-99.99,WSDL version 423,2013-03-09 16:18:00,
2013-03-09 10:23:00,56.8,28.3,30.09,SSE,161,1.3,3.4,33,-99.99,,,-99.99,WSDL version 423,2013-03-09 16:23:00,
2013-03-09 10:24:00,56.9,28.2,30.09,South,173,1.3,3.4,33,-99.99,,,-99.99,WSDL version 423,2013-03-09 16:24:00,
2013-03-09 10:27:00,57.0,28.2,30.09,SE,139,1.0,3.4,33,-99.99,,,-99.99,WSDL version 423,2013-03-09 16:27:00,
2013-03-09 10:28:00,57.0,28.2,30.09,South,180,1.1,3.4,33,-99.99,,,-99.99,WSDL version 423,2013-03-09 16:28:00,
2013-03-09 10:29:00,57.0,28.2,30.09,SSW,210,1.1,3.4,33,-99.99,,,-99.99,WSDL version 423,2013-03-09 16:29:00,
2013-03-09 10:33:00,57.0,28.2,30.06,SE,146,0.1,2.0,33,-99.99,,,-99.99,WSDL version 423,2013-03-09 16:33:00,
2013-03-09 10:34:00,57.1,28.0,30.06,SSE,158,0.0,2.0,32,-99.99,,,-99.99,WSDL version 423,2013-03-09 16:34:00,
2013-03-09 10:36:00,57.2,27.9,30.06,WSW,251,0.7,2.0,32,-99.99,,,-99.99,WSDL version 423,2013-03-09 16:36:00,
2013-03-09 10:39:00,57.5,27.9,30.06,SSE,154,1.1,2.0,32,-99.99,,,-99.99,WSDL version 423,2013-03-09 16:39:00,
2013-03-09 10:41:00,57.7,28.1,30.06,South,183,1.5,2.2,32,-99.99,,,-99.99,WSDL version 423,2013-03-09 16:41:00,
2013-03-09 10:43:00,57.9,28.2,30.06,SE,129,0.8,2.2,32,-99.99,,,-99.99,WSDL version 423,2013-03-09 16:43:00,
2013-03-09 10:44:00,58.0,28.3,30.06,SE,129,0.6,2.2,32,-99.99,,,-99.99,WSDL version 423,2013-03-09 16:44:00,
2013-03-09 10:48:00,58.4,28.7,30.06,SSE,155,0.9,2.9,32,-99.99,,,-99.99,WSDL version 423,2013-03-09 16:48:00,
2013-03-09 10:50:00,58.5,28.8,30.06,SE,138,1.0,2.9,32,-99.99,,,-99.99,WSDL version 423,2013-03-09 16:50:00,
2013-03-09 10:51:00,58.6,28.8,30.06,SSE,158,0.9,2.9,32,-99.99,,,-99.99,WSDL version 423,2013-03-09 16:51:00,
2013-03-09 10:53:00,58.7,29.0,30.06,SE,141,1.1,2.9,32,-99.99,,,-99.99,WSDL version 423,2013-03-09 16:53:00,
2013-03-09 10:54:00,58.7,28.8,30.06,SE,132,1.2,2.9,31,-99.99,,,-99.99,WSDL version 423,2013-03-09 16:54:00,
2013-03-09 10:56:00,58.7,28.8,30.06,SE,135,0.6,2.9,32,-99.99,,,-99.99,WSDL version 423,2013-03-09 16:56:00,
2013-03-09 10:58:00,58.6,28.7,30.06,SSE,160,0.4,2.2,32,-99.99,,,-99.99,WSDL version 423,2013-03-09 16:58:00,
2013-03-09 11:00:00,58.6,28.9,30.06,SE,138,1.3,2.9,32,-99.99,,,-99.99,WSDL version 423,2013-03-09 17:00:00,
2013-03-09 11:01:00,58.6,28.8,30.06,SE,141,1.2,2.9,32,-99.99,,,-99.99,WSDL version 423,2013-03-09 17:01:00,
2013-03-09 11:04:00,58.5,28.6,30.06,SE,135,0.4,2.9,32,-99.99,,,-99.99,WSDL version 423,2013-03-09 17:04:00,
2013-03-09 11:05:00,58.4,28.5,30.06,SE,132,0.7,2.9,31,-99.99,,,-99.99,WSDL version 423,2013-03-09 17:05:00,
2013-03-09 11:06:00,58.4,28.5,30.06,ESE,121,1.4,2.9,32,-99.99,,,-99.99,WSDL version 423,2013-03-09 17:06:00,
2013-03-09 11:09:00,58.4,28.4,30.06,SE,140,0.5,2.9,32,-99.99,,,-99.99,WSDL version 423,2013-03-09 17:09:00,
2013-03-09 11:11:00,58.5,28.6,30.06,SE,127,0.8,2.9,32,-99.99,,,-99.99,WSDL version 423,2013-03-09 17:11:00,
2013-03-09 11:12:00,58.6,28.8,30.06,SE,128,1.0,2.9,32,-99.99,,,-99.99,WSDL version 423,2013-03-09 17:12:00,
2013-03-09 11:15:00,58.8,29.0,30.03,SSE,148,1.4,2.9,32,-99.99,,,-99.99,WSDL version 423,2013-03-09 17:15:00,
2013-03-09 11:16:00,58.9,29.1,30.03,SE,145,1.2,2.9,32,-99.99,,,-99.99,WSDL version 423,2013-03-09 17:16:00,
2013-03-09 11:20:00,59.6,29.2,30.03,ESE,119,1.5,2.9,31,-99.99,,,-99.99,WSDL version 423,2013-03-09 17:20:00,
2013-03-09 11:21:00,59.8,29.2,30.03,SE,141,1.7,2.9,31,-99.99,,,-99.99,WSDL version 423,2013-03-09 17:21:00,
2013-03-09 11:22:00,59.9,29.2,30.03,SE,135,0.9,2.9,31,-99.99,,,-99.99,WSDL version 423,2013-03-09 17:22:00,
2013-03-09 11:23:00,60.1,29.4,30.03,ESE,115,0.6,2.9,31,-99.99,,,-99.99,WSDL version 423,2013-03-09 17:23:00,
2013-03-09 11:26:00,60.5,29.8,30.03,SE,135,1.2,2.9,31,-99.99,,,-99.99,WSDL version 423,2013-03-09 17:26:00,
2013-03-09 11:28:00,60.6,29.8,30.03,South,169,1.3,2.9,31,-99.99,,,-99.99,WSDL version 423,2013-03-09 17:28:00,
2013-03-09 11:30:00,60.7,29.9,30.03,SSE,153,0.6,2.2,31,-99.99,,,-99.99,WSDL version 423,2013-03-09 17:30:00,
2013-03-09 11:32:00,60.8,30.0,30.03,SSE,151,0.5,2.2,31,-99.99,,,-99.99,WSDL version 423,2013-03-09 17:32:00,
2013-03-09 11:33:00,60.8,30.0,30.03,SE,133,1.0,2.5,31,-99.99,,,-99.99,WSDL version 423,2013-03-09 17:33:00,
2013-03-09 11:34:00,60.8,30.0,30.03,SSE,148,1.3,2.5,31,-99.99,,,-99.99,WSDL version 423,2013-03-09 17:34:00,
2013-03-09 11:38:00,60.9,30.1,30.03,SSE,165,0.9,2.7,31,-99.99,,,-99.99,WSDL version 423,2013-03-09 17:38:00,
2013-03-09 11:39:00,61.1,30.2,30.03,SE,138,0.6,2.7,31,-99.99,,,-99.99,WSDL version 423,2013-03-09 17:39:00,
2013-03-09 11:41:00,61.2,30.3,30.03,SE,145,0.6,2.7,31,-99.99,,,-99.99,WSDL version 423,2013-03-09 17:41:00,
2013-03-09 11:43:00,61.2,30.3,30.03,SE,140,1.3,2.7,31,-99.99,,,-99.99,WSDL version 423,2013-03-09 17:43:00,
2013-03-09 11:44:00,61.2,30.3,30.03,SE,135,1.2,2.7,31,-99.99,,,-99.99,WSDL version 423,2013-03-09 17:44:00,
2013-03-09 11:46:00,61.2,30.3,30.03,SE,141,1.3,2.7,31,-99.99,,,-99.99,WSDL version 423,2013-03-09 17:46:00,
2013-03-09 11:47:00,61.2,30.4,30.03,SE,125,1.0,2.7,31,-99.99,,,-99.99,WSDL version 423,2013-03-09 17:47:00,
2013-03-09 11:51:00,61.4,30.3,30.03,SE,138,1.2,2.7,30,-99.99,,,-99.99,WSDL version 423,2013-03-09 17:51:00,
2013-03-09 11:52:00,61.4,30.4,30.03,SE,135,1.1,2.7,31,-99.99,,,-99.99,WSDL version 423,2013-03-09 17:52:00,
2013-03-09 11:57:00,62.4,31.2,30.03,SSE,163,1.4,3.1,31,-99.99,,,-99.99,WSDL version 423,2013-03-09 17:57:00,
2013-03-09 11:58:00,62.6,31.3,30.03,SE,132,1.2,3.1,30,-99.99,,,-99.99,WSDL version 423,2013-03-09 17:58:00,
2013-03-09 11:59:00,62.8,31.3,30.03,ESE,113,1.3,3.6,30,-99.99,,,-99.99,WSDL version 423,2013-03-09 17:59:00,
2013-03-09 12:01:00,63.3,31.5,30.03,SE,140,0.6,3.6,30,-99.99,,,-99.99,WSDL version 423,2013-03-09 18:01:00,
2013-03-09 12:02:00,63.6,31.6,30.03,SE,132,0.5,3.6,30,-99.99,,,-99.99,WSDL version 423,2013-03-09 18:02:00,
2013-03-09 12:03:00,63.8,31.8,30.03,SSE,165,1.1,3.6,30,-99.99,,,-99.99,WSDL version 423,2013-03-09 18:03:00,
2013-03-09 12:07:00,64.1,32.1,30.03,ESE,121,0.7,3.6,30,-99.99,,,-99.99,WSDL version 423,2013-03-09 18:07:00,
2013-03-09 12:08:00,64.2,32.1,30.03,SSE,148,0.6,3.6,30,-99.99,,,-99.99,WSDL version 423,2013-03-09 18:08:00,
2013-03-09 12:09:00,64.2,32.1,30.03,SE,143,1.1,2.5,30,-99.99,,,-99.99,WSDL version 423,2013-03-09 18:09:00,
2013-03-09 12:14:00,64.1,32.0,30.03,East,100,1.5,4.0,30,-99.99,,,-99.99,WSDL version 423,2013-03-09 18:14:00,
2013-03-09 12:17:00,64.9,32.4,30.00,SSE,167,1.4,4.0,29,-99.99,,,-99.99,WSDL version 423,2013-03-09 18:17:00,
2013-03-09 12:19:00,65.7,32.8,30.00,ESE,113,1.5,4.0,29,-99.99,,,-99.99,WSDL version 423,2013-03-09 18:19:00,
2013-03-09 12:21:00,66.6,33.4,30.00,ESE,118,1.9,4.0,29,-99.99,,,-99.99,WSDL version 423,2013-03-09 18:21:00,
2013-03-09 12:24:00,67.3,33.6,30.00,SE,143,1.4,4.0,26,-99.99,,,-99.99,WSDL version 423,2013-03-09 18:24:00,
2013-03-09 12:25:00,67.5,33.1,30.00,SE,125,1.2,4.0,26,-99.99,,,-99.99,WSDL version 423,2013-03-09 18:25:00,
2013-03-09 12:30:00,67.2,31.2,30.00,SE,140,0.5,4.3,26,-99.99,,,-99.99,WSDL version 423,2013-03-09 18:30:00,
2013-03-09 12:31:00,67.3,31.3,30.00,ESE,118,1.1,4.3,26,-99.99,,,-99.99,WSDL version 423,2013-03-09 18:31:00,
2013-03-09 12:33:00,67.7,31.6,30.00,SE,138,1.1,4.3,26,-99.99,,,-99.99,WSDL version 423,2013-03-09 18:33:00,
2013-03-09 12:35:00,68.2,32.0,30.00,South,172,1.5,4.3,26,-99.99,,,-99.99,WSDL version 423,2013-03-09 18:35:00,
2013-03-09 12:36:00,68.4,32.2,30.00,South,190,1.4,4.0,26,-99.99,,,-99.99,WSDL version 423,2013-03-09 18:36:00,
2013-03-09 12:39:00,68.9,32.6,30.00,NE,34,1.4,4.0,26,-99.99,,,-99.99,WSDL version 423,2013-03-09 18:39:00,
2013-03-09 12:40:00,68.9,32.6,30.00,ESE,122,1.3,4.0,26,-99.99,,,-99.99,WSDL version 423,2013-03-09 18:40:00,
2013-03-09 12:42:00,68.8,31.0,30.00,SE,146,1.2,4.0,23,-99.99,,,-99.99,WSDL version 423,2013-03-09 18:42:00,
2013-03-09 12:44:00,68.9,31.1,30.00,SSE,160,1.8,2.9,26,-99.99,,,-99.99,WSDL version 423,2013-03-09 18:44:00,
2013-03-09 12:45:00,69.1,31.3,30.00,SSW,199,1.4,3.4,26,-99.99,,,-99.99,WSDL version 423,2013-03-09 18:45:00,
2013-03-09 12:47:00,69.9,32.8,30.00,South,191,3.2,5.4,23,-99.99,,,-99.99,WSDL version 423,2013-03-09 18:47:00,
2013-03-09 12:49:00,70.4,32.1,30.00,ESE,107,3.6,7.2,23,-99.99,,,-99.99,WSDL version 423,2013-03-09 18:49:00,
2013-03-09 12:52:00,70.5,32.0,30.00,SE,129,1.3,7.2,26,-99.99,,,-99.99,WSDL version 423,2013-03-09 18:52:00,
2013-03-09 13:23:00,68.4,30.3,29.97,ESE,113,1.6,3.6,24,-99.99,,,-99.99,WSDL version 423,2013-03-09 19:23:00,
2013-03-09 13:24:00,68.4,30.2,29.97,ESE,104,0.7,3.6,24,-99.99,,,-99.99,WSDL version 423,2013-03-09 19:24:00,
2013-03-09 13:26:00,68.3,30.1,29.97,SSE,161,0.3,3.6,24,-99.99,,,-99.99,WSDL version 423,2013-03-09 19:26:00,
2013-03-09 13:29:00,67.9,29.8,29.97,SSE,158,1.5,3.6,24,-99.99,,,-99.99,WSDL version 423,2013-03-09 19:29:00,
2013-03-09 13:31:00,67.8,29.7,29.97,SE,135,1.1,3.6,24,-99.99,,,-99.99,WSDL version 423,2013-03-09 19:31:00,
2013-03-09 13:34:00,67.6,29.6,29.97,SE,143,0.3,3.1,24,-99.99,,,-99.99,WSDL version 423,2013-03-09 19:34:00,
2013-03-09 13:35:00,67.6,29.6,29.97,SE,129,0.4,3.1,24,-99.99,,,-99.99,WSDL version 423,2013-03-09 19:35:00,
2013-03-09 13:39:00,67.6,29.6,29.97,SE,135,0.9,3.4,24,-99.99,,,-99.99,WSDL version 423,2013-03-09 19:39:00,
2013-03-09 13:40:00,67.7,29.6,29.97,ESE,122,1.0,3.4,24,-99.99,,,-99.99,WSDL version 423,2013-03-09 19:40:00,
2013-03-09 13:42:00,67.8,30.1,29.97,West,274,0.3,3.4,24,-99.99,,,-99.99,WSDL version 423,2013-03-09 19:42:00,
2013-03-09 13:43:00,67.9,30.1,29.97,SSE,152,1.0,3.4,24,-99.99,,,-99.99,WSDL version 423,2013-03-09 19:43:00,
2013-03-09 13:44:00,68.0,30.2,29.97,SSE,150,1.3,3.4,24,-99.99,,,-99.99,WSDL version 423,2013-03-09 19:44:00,
2013-03-09 13:48:00,68.0,29.9,29.94,SE,124,1.1,2.9,24,-99.99,,,-99.99,WSDL version 423,2013-03-09 19:48:00,
2013-03-09 13:50:00,68.1,30.0,29.94,SSE,155,1.3,2.9,24,-99.99,,,-99.99,WSDL version 423,2013-03-09 19:50:00,
2013-03-09 13:55:00,68.3,30.1,29.94,SE,131,1.3,3.1,24,-99.99,,,-99.99,WSDL version 423,2013-03-09 19:55:00,
2013-03-09 13:56:00,68.4,30.0,29.94,SSE,158,1.4,3.1,23,-99.99,,,-99.99,WSDL version 423,2013-03-09 19:56:00,
2013-03-09 13:57:00,68.6,29.9,29.94,WSW,245,1.9,4.7,23,-99.99,,,-99.99,WSDL version 423,2013-03-09 19:57:00,
2013-03-09 14:01:00,69.3,30.0,29.94,East,96,1.7,4.7,23,-99.99,,,-99.99,WSDL version 423,2013-03-09 20:01:00,
2013-03-09 14:02:00,69.5,30.1,29.94,SE,129,1.9,4.7,23,-99.99,,,-99.99,WSDL version 423,2013-03-09 20:02:00,
2013-03-09 14:05:00,69.5,30.1,29.94,SE,127,2.0,4.7,23,-99.99,,,-99.99,WSDL version 423,2013-03-09 20:05:00,
2013-03-09 14:07:00,69.5,30.1,29.94,SSE,164,1.6,4.7,23,-99.99,,,-99.99,WSDL version 423,2013-03-09 20:07:00,
2013-03-09 14:08:00,69.6,30.2,29.94,SE,140,1.3,4.7,23,-99.99,,,-99.99,WSDL version 423,2013-03-09 20:08:00,
2013-03-09 14:13:00,70.0,30.5,29.94,South,186,1.3,4.7,23,-99.99,,,-99.99,WSDL version 423,2013-03-09 20:13:00,
2013-03-09 14:17:00,70.0,30.6,29.94,SE,129,1.0,3.6,23,-99.99,,,-99.99,WSDL version 423,2013-03-09 20:17:00,
2013-03-09 14:18:00,70.0,30.5,29.94,ESE,118,1.1,3.6,23,-99.99,,,-99.99,WSDL version 423,2013-03-09 20:18:00,
2013-03-09 14:21:00,69.7,30.3,29.94,South,177,1.7,2.9,23,-99.99,,,-99.99,WSDL version 423,2013-03-09 20:21:00,
2013-03-09 14:23:00,69.7,30.3,29.94,ESE,118,1.1,4.3,23,-99.99,,,-99.99,WSDL version 423,2013-03-09 20:23:00,
2013-03-09 14:28:00,70.4,30.9,29.94,SE,143,2.4,6.5,23,-99.99,,,-99.99,WSDL version 423,2013-03-09 20:28:00,
2013-03-09 14:31:00,70.7,31.1,29.94,SE,141,1.2,6.5,23,-99.99,,,-99.99,WSDL version 423,2013-03-09 20:31:00,
2013-03-09 14:34:00,70.9,31.3,29.94,SE,127,1.7,6.5,23,-99.99,,,-99.99,WSDL version 423,2013-03-09 20:34:00,
2013-03-09 14:39:00,70.8,31.2,29.94,South,180,2.9,5.8,23,-99.99,,,-99.99,WSDL version 423,2013-03-09 20:39:00,
2013-03-09 14:40:00,70.7,31.1,29.94,SE,138,2.2,5.8,23,-99.99,,,-99.99,WSDL version 423,2013-03-09 20:40:00,
2013-03-09 14:45:00,69.5,30.1,29.94,SE,129,1.0,5.8,23,-99.99,,,-99.99,WSDL version 423,2013-03-09 20:45:00,
2013-03-09 14:46:00,69.4,30.0,29.94,SSE,155,0.4,5.8,23,-99.99,,,-99.99,WSDL version 423,2013-03-09 20:46:00,
2013-03-09 14:50:00,69.3,30.0,29.94,South,174,2.0,3.8,23,-99.99,,,-99.99,WSDL version 423,2013-03-09 20:50:00,
2013-03-09 14:51:00,69.4,30.0,29.94,SSE,158,1.0,3.8,23,-99.99,,,-99.99,WSDL version 423,2013-03-09 20:51:00,
2013-03-09 14:56:00,69.3,30.0,29.94,ESE,120,1.1,3.8,23,-99.99,,,-99.99,WSDL version 423,2013-03-09 20:56:00,
2013-03-09 14:57:00,69.3,30.0,29.94,ENE,60,1.2,3.8,23,-99.99,,,-99.99,WSDL version 423,2013-03-09 20:57:00,
2013-03-09 14:59:00,69.4,30.0,29.94,South,183,0.9,3.1,23,-99.99,,,-99.99,WSDL version 423,2013-03-09 20:59:00,
2013-03-09 15:01:00,69.6,30.2,29.91,SE,138,1.3,3.1,23,-99.99,,,-99.99,WSDL version 423,2013-03-09 21:01:00,
2013-03-09 15:02:00,69.8,30.3,29.91,ESE,106,1.2,3.1,23,-99.99,,,-99.99,WSDL version 423,2013-03-09 21:02:00,
2013-03-09 15:04:00,70.2,30.7,29.91,ESE,118,1.0,3.1,23,-99.99,,,-99.99,WSDL version 423,2013-03-09 21:04:00,
2013-03-09 15:06:00,70.5,31.0,29.91,SSE,160,1.1,3.1,23,-99.99,,,-99.99,WSDL version 423,2013-03-09 21:06:00,
2013-03-09 15:11:00,70.6,31.1,29.91,SSE,149,1.1,3.1,23,-99.99,,,-99.99,WSDL version 423,2013-03-09 21:11:00,
2013-03-09 15:16:00,70.7,31.1,29.91,SE,132,1.5,3.1,23,-99.99,,,-99.99,WSDL version 423,2013-03-09 21:16:00,
2013-03-09 15:17:00,70.7,31.1,29.91,SSW,213,1.4,3.1,23,-99.99,,,-99.99,WSDL version 423,2013-03-09 21:17:00,
2013-03-09 15:18:00,70.7,31.1,29.91,SSE,158,1.4,3.1,23,-99.99,,,-99.99,WSDL version 423,2013-03-09 21:18:00,
2013-03-09 15:23:00,70.6,31.0,29.91,ENE,76,1.6,2.7,23,-99.99,,,-99.99,WSDL version 423,2013-03-09 21:23:00,
2013-03-09 15:24:00,70.6,31.0,29.91,ESE,108,1.5,4.3,23,-99.99,,,-99.99,WSDL version 423,2013-03-09 21:24:00,
2013-03-09 15:28:00,70.9,31.3,29.91,SSW,208,1.5,4.3,23,-99.99,,,-99.99,WSDL version 423,2013-03-09 21:28:00,
2013-03-09 15:33:00,71.1,31.5,29.91,SSE,148,1.3,4.3,23,-99.99,,,-99.99,WSDL version 423,2013-03-09 21:33:00,
2013-03-09 15:38:00,70.6,31.0,29.91,ESE,122,1.6,3.8,23,-99.99,,,-99.99,WSDL version 423,2013-03-09 21:38:00,
2013-03-09 15:40:00,70.4,30.9,29.91,ESE,109,2.3,3.8,23,-99.99,,,-99.99,WSDL version 423,2013-03-09 21:40:00,
2013-03-09 15:43:00,70.2,30.7,29.91,SSE,165,1.5,3.8,23,-99.99,,,-99.99,WSDL version 423,2013-03-09 21:43:00,
2013-03-09 15:44:00,70.1,30.7,29.91,SSE,158,1.8,3.8,23,-99.99,,,-99.99,WSDL version 423,2013-03-09 21:44:00,
2013-03-09 15:46:00,70.2,30.7,29.91,South,180,1.1,3.8,23,-99.99,,,-99.99,WSDL version 423,2013-03-09 21:46:00,
2013-03-09 15:48:00,70.2,30.7,29.91,SW,225,1.2,3.1,23,-99.99,,,-99.99,WSDL version 423,2013-03-09 21:48:00,
2013-03-09 15:49:00,70.3,30.8,29.91,South,174,1.4,3.4,23,-99.99,,,-99.99,WSDL version 423,2013-03-09 21:49:00,
2013-03-09 15:50:00,70.3,30.8,29.91,SE,124,1.6,3.4,23,-99.99,,,-99.99,WSDL version 423,2013-03-09 21:50:00,
2013-03-09 15:52:00,70.3,30.8,29.91,East,79,1.3,3.4,23,-99.99,,,-99.99,WSDL version 423,2013-03-09 21:52:00,
2013-03-09 15:55:00,70.3,30.8,29.91,SSW,198,2.1,3.4,23,-99.99,,,-99.99,WSDL version 423,2013-03-09 21:55:00,
2013-03-09 15:57:00,70.2,30.7,29.91,SSE,158,1.2,3.4,23,-99.99,,,-99.99,WSDL version 423,2013-03-09 21:57:00,
2013-03-09 15:59:00,70.3,30.8,29.91,SE,140,2.6,3.1,23,-99.99,,,-99.99,WSDL version 423,2013-03-09 21:59:00,
2013-03-09 16:01:00,70.3,30.8,29.91,SSE,154,1.4,3.1,23,-99.99,,,-99.99,WSDL version 423,2013-03-09 22:01:00,
2013-03-09 16:02:00,70.3,30.8,29.91,SSE,161,1.5,3.1,23,-99.99,,,-99.99,WSDL version 423,2013-03-09 22:02:00,
2013-03-09 16:05:00,70.3,30.8,29.91,South,171,1.1,2.9,23,-99.99,,,-99.99,WSDL version 423,2013-03-09 22:05:00,
2013-03-09 16:06:00,70.3,30.8,29.91,South,191,1.3,2.9,23,-99.99,,,-99.99,WSDL version 423,2013-03-09 22:06:00,
2013-03-09 16:09:00,70.1,30.6,29.91,SE,139,1.8,3.6,23,-99.99,,,-99.99,WSDL version 423,2013-03-09 22:09:00,
2013-03-09 16:13:00,70.0,30.5,29.91,ESE,118,1.6,3.6,23,-99.99,,,-99.99,WSDL version 423,2013-03-09 22:13:00,
2013-03-09 16:14:00,70.0,30.5,29.91,SSE,160,1.3,3.6,23,-99.99,,,-99.99,WSDL version 423,2013-03-09 22:14:00,
2013-03-09 16:15:00,70.0,30.5,29.91,ESE,105,0.9,3.6,23,-99.99,,,-99.99,WSDL version 423,2013-03-09 22:15:00,
2013-03-09 16:16:00,70.0,30.5,29.91,South,173,1.0,3.6,23,-99.99,,,-99.99,WSDL version 423,2013-03-09 22:16:00,
2013-03-09 16:19:00,70.0,30.5,29.91,ESE,113,1.3,4.0,23,-99.99,,,-99.99,WSDL version 423,2013-03-09 22:19:00,
2013-03-09 16:21:00,70.0,30.6,29.91,South,191,0.9,4.0,23,-99.99,,,-99.99,WSDL version 423,2013-03-09 22:21:00,
2013-03-09 16:22:00,70.1,30.7,29.91,South,169,1.2,5.6,23,-99.99,,,-99.99,WSDL version 423,2013-03-09 22:22:00,
2013-03-09 16:23:00,70.2,30.7,29.91,South,188,1.1,5.6,23,-99.99,,,-99.99,WSDL version 423,2013-03-09 22:23:00,
2013-03-09 16:26:00,70.4,30.9,29.91,SE,140,1.7,7.8,23,-99.99,,,-99.99,WSDL version 423,2013-03-09 22:26:00,
2013-03-09 16:29:00,70.4,30.9,29.91,South,169,1.8,7.8,23,-99.99,,,-99.99,WSDL version 423,2013-03-09 22:29:00,
2013-03-09 16:30:00,70.4,30.9,29.91,SE,135,2.0,7.8,23,-99.99,,,-99.99,WSDL version 423,2013-03-09 22:30:00,
2013-03-09 16:32:00,70.3,30.8,29.91,SSE,158,1.8,7.8,23,-99.99,,,-99.99,WSDL version 423,2013-03-09 22:32:00,
2013-03-09 16:33:00,70.3,30.8,29.91,South,169,1.4,7.8,23,-99.99,,,-99.99,WSDL version 423,2013-03-09 22:33:00,
2013-03-09 16:35:00,70.2,30.7,29.91,South,176,1.1,4.0,23,-99.99,,,-99.99,WSDL version 423,2013-03-09 22:35:00,
2013-03-09 16:39:00,70.1,30.6,29.91,SSE,167,1.5,4.3,23,-99.99,,,-99.99,WSDL version 423,2013-03-09 22:39:00,
2013-03-09 16:40:00,70.1,30.6,29.91,SE,126,1.2,4.3,23,-99.99,,,-99.99,WSDL version 423,2013-03-09 22:40:00,
2013-03-09 16:41:00,70.0,30.6,29.91,SE,141,1.1,4.3,23,-99.99,,,-99.99,WSDL version 423,2013-03-09 22:41:00,
2013-03-09 16:43:00,69.9,30.4,29.91,SSW,195,1.5,4.3,23,-99.99,,,-99.99,WSDL version 423,2013-03-09 22:43:00,
2013-03-09 16:45:00,69.7,30.2,29.91,South,178,1.4,4.3,23,-99.99,,,-99.99,WSDL version 423,2013-03-09 22:45:00,
2013-03-09 16:46:00,69.6,30.2,29.91,SSE,158,1.3,6.5,23,-99.99,,,-99.99,WSDL version 423,2013-03-09 22:46:00,
2013-03-09 16:47:00,69.5,30.1,29.91,SSE,152,1.9,6.5,23,-99.99,,,-99.99,WSDL version 423,2013-03-09 22:47:00,
2013-03-09 16:48:00,69.4,30.0,29.91,South,174,2.0,6.5,23,-99.99,,,-99.99,WSDL version 423,2013-03-09 22:48:00,
2013-03-09 16:53:00,68.7,29.9,29.91,South,186,0.0,6.5,24,-99.99,,,-99.99,WSDL version 423,2013-03-09 22:53:00,
2013-03-09 16:56:00,68.3,30.2,29.91,SSE,163,1.2,5.8,24,-99.99,,,-99.99,WSDL version 423,2013-03-09 22:56:00,
2013-03-09 16:59:00,67.9,29.8,29.91,South,170,0.5,5.8,24,-99.99,,,-99.99,WSDL version 423,2013-03-09 22:59:00,
2013-03-09 17:01:00,67.8,29.7,29.91,SW,214,0.3,5.8,24,-99.99,,,-99.99,WSDL version 423,2013-03-09 23:01:00,
2013-03-09 17:04:00,67.5,29.5,29.91,SE,146,1.0,5.8,24,-99.99,,,-99.99,WSDL version 423,2013-03-09 23:04:00,
2013-03-09 17:06:00,67.3,29.3,29.91,South,180,0.6,2.7,24,-99.99,,,-99.99,WSDL version 423,2013-03-09 23:06:00,
2013-03-09 17:10:00,67.0,29.0,29.91,SSE,158,0.0,2.7,24,-99.99,,,-99.99,WSDL version 423,2013-03-09 23:10:00,
2013-03-09 17:11:00,66.9,29.0,29.91,South,186,0.0,2.7,24,-99.99,,,-99.99,WSDL version 423,2013-03-09 23:11:00,
2013-03-09 17:15:00,66.6,28.7,29.91,SE,128,0.1,2.5,24,-99.99,,,-99.99,WSDL version 423,2013-03-09 23:15:00,
2013-03-09 17:16:00,66.6,28.7,29.91,SSE,151,0.0,2.5,24,-99.99,,,-99.99,WSDL version 423,2013-03-09 23:16:00,
2013-03-09 17:20:00,66.4,28.5,29.91,ESE,118,0.0,2.0,24,-99.99,,,-99.99,WSDL version 423,2013-03-09 23:20:00,
2013-03-09 17:23:00,66.2,28.4,29.91,SE,146,0.0,2.0,24,-99.99,,,-99.99,WSDL version 423,2013-03-09 23:23:00,
2013-03-09 17:25:00,66.1,28.3,29.91,SE,143,0.0,1.6,24,-99.99,,,-99.99,WSDL version 423,2013-03-09 23:25:00,
2013-03-09 17:28:00,66.0,28.2,29.91,SE,127,0.7,1.6,24,-99.99,,,-99.99,WSDL version 423,2013-03-09 23:28:00,
2013-03-09 17:30:00,65.9,28.1,29.91,SE,135,0.0,1.3,24,-99.99,,,-99.99,WSDL version 423,2013-03-09 23:30:00,
2013-03-09 17:33:00,65.8,28.0,29.91,ESE,113,0.4,2.0,24,-99.99,,,-99.99,WSDL version 423,2013-03-09 23:33:00,
2013-03-09 17:38:00,65.6,27.9,29.91,SE,124,0.5,2.2,24,-99.99,,,-99.99,WSDL version 423,2013-03-09 23:38:00,
2013-03-09 17:43:00,65.6,27.9,29.91,SE,144,0.5,2.2,24,-99.99,,,-99.99,WSDL version 423,2013-03-09 23:43:00,
2013-03-09 17:45:00,65.6,27.9,29.91,ESE,118,1.0,2.2,24,-99.99,,,-99.99,WSDL version 423,2013-03-09 23:45:00,
2013-03-09 17:49:00,65.6,27.8,29.91,SE,139,0.0,2.0,24,-99.99,,,-99.99,WSDL version 423,2013-03-09 23:49:00,
2013-03-09 17:51:00,65.5,27.7,29.91,SE,129,0.5,2.0,24,-99.99,,,-99.99,WSDL version 423,2013-03-09 23:51:00,
2013-03-09 17:54:00,65.5,27.7,29.91,SE,124,0.1,1.6,24,-99.99,,,-99.99,WSDL version 423,2013-03-09 23:54:00,
2013-03-09 17:57:00,65.5,27.7,29.91,SE,140,0.0,1.6,24,-99.99,,,-99.99,WSDL version 423,2013-03-09 23:57:00,
2013-03-09 17:59:00,65.4,27.7,29.91,SE,141,0.0,1.6,24,-99.99,,,-99.99,WSDL version 423,2013-03-09 23:59:00,
2013-03-09 18:03:00,65.2,27.5,29.91,SE,135,0.0,0.9,24,-99.99,,,-99.99,WSDL version 423,2013-03-10 00:03:00,
2013-03-09 18:04:00,65.2,27.5,29.91,SE,126,0.0,0.9,24,-99.99,,,-99.99,WSDL version 423,2013-03-10 00:04:00,
2013-03-09 18:08:00,65.0,27.9,29.91,SE,126,0.0,0.9,25,-99.99,,,-99.99,WSDL version 423,2013-03-10 00:08:00,
2013-03-09 18:09:00,65.0,28.0,29.91,SE,129,0.0,1.3,25,-99.99,,,-99.99,WSDL version 423,2013-03-10 00:09:00,
2013-03-09 18:13:00,64.8,28.2,29.91,SE,131,0.0,1.3,25,-99.99,,,-99.99,WSDL version 423,2013-03-10 00:13:00,
2013-03-09 18:14:00,64.8,28.2,29.91,SE,132,0.0,1.3,25,-99.99,,,-99.99,WSDL version 423,2013-03-10 00:14:00,
2013-03-09 18:19:00,64.6,28.0,29.88,SE,135,0.0,1.3,25,-99.99,,,-99.99,WSDL version 423,2013-03-10 00:19:00,
2013-03-09 18:20:00,64.5,28.0,29.88,SE,135,0.0,1.3,25,-99.99,,,-99.99,WSDL version 423,2013-03-10 00:20:00,
2013-03-09 18:25:00,64.2,27.7,29.88,SE,135,0.0,1.3,25,-99.99,,,-99.99,WSDL version 423,2013-03-10 00:25:00,
2013-03-09 18:30:00,63.9,27.4,29.91,SE,135,0.0,0.9,25,-99.99,,,-99.99,WSDL version 423,2013-03-10 00:30:00,
2013-03-09 18:32:00,63.7,27.3,29.91,SE,131,0.0,0.0,25,-99.99,,,-99.99,WSDL version 423,2013-03-10 00:32:00,
2013-03-09 18:36:00,63.5,27.1,29.91,East,90,0.0,0.0,25,-99.99,,,-99.99,WSDL version 423,2013-03-10 00:36:00,
2013-03-09 18:38:00,63.4,27.0,29.91,East,90,0.0,0.0,25,-99.99,,,-99.99,WSDL version 423,2013-03-10 00:38:00,
2013-03-09 18:43:00,63.1,26.8,29.91,ESE,113,0.0,0.9,25,-99.99,,,-99.99,WSDL version 423,2013-03-10 00:43:00,
2013-03-09 18:45:00,63.0,26.7,29.88,ESE,113,0.0,0.9,25,-99.99,,,-99.99,WSDL version 423,2013-03-10 00:45:00,
2013-03-09 18:50:00,62.9,26.5,29.88,ESE,113,0.0,0.9,25,-99.99,,,-99.99,WSDL version 423,2013-03-10 00:50:00,
2013-03-09 18:53:00,62.7,26.4,29.88,SSE,158,0.0,0.0,25,-99.99,,,-99.99,WSDL version 423,2013-03-10 00:53:00,
2013-03-09 18:58:00,62.6,26.3,29.88,SSE,158,0.0,0.0,25,-99.99,,,-99.99,WSDL version 423,2013-03-10 00:58:00,
2013-03-09 19:00:00,62.5,26.2,29.91,SE,141,0.0,0.0,25,-99.99,,,-99.99,WSDL version 423,2013-03-10 01:00:00,
2013-03-09 19:05:00,62.3,26.1,29.91,SE,135,0.0,0.0,25,-99.99,,,-99.99,WSDL version 423,2013-03-10 01:05:00,
2013-03-09 19:07:00,62.3,26.0,29.91,SE,135,0.0,0.0,25,-99.99,,,-99.99,WSDL version 423,2013-03-10 01:07:00,
2013-03-09 19:11:00,62.1,25.9,29.91,SE,135,0.0,0.0,25,-99.99,,,-99.99,WSDL version 423,2013-03-10 01:11:00,
2013-03-09 19:14:00,61.9,25.7,29.91,SE,135,0.0,0.0,25,-99.99,,,-99.99,WSDL version 423,2013-03-10 01:14:00,
2013-03-09 19:16:00,61.8,25.7,29.91,SE,135,0.0,0.0,25,-99.99,,,-99.99,WSDL version 423,2013-03-10 01:16:00,
2013-03-09 19:19:00,61.7,25.6,29.91,SE,135,0.0,0.0,25,-99.99,,,-99.99,WSDL version 423,2013-03-10 01:19:00,
2013-03-09 19:22:00,61.6,25.5,29.91,SE,135,0.0,0.0,25,-99.99,,,-99.99,WSDL version 423,2013-03-10 01:22:00,
2013-03-09 19:26:00,61.4,25.3,29.91,SE,135,0.0,0.9,25,-99.99,,,-99.99,WSDL version 423,2013-03-10 01:26:00,
2013-03-09 19:29:00,61.3,25.2,29.91,SE,135,0.0,0.9,25,-99.99,,,-99.99,WSDL version 423,2013-03-10 01:29:00,
2013-03-09 19:34:00,61.1,25.0,29.91,SE,135,0.0,0.0,25,-99.99,,,-99.99,WSDL version 423,2013-03-10 01:34:00,
2013-03-09 19:38:00,61.0,24.9,29.91,SE,135,0.0,0.0,25,-99.99,,,-99.99,WSDL version 423,2013-03-10 01:38:00,
2013-03-09 19:43:00,60.8,24.8,29.91,SE,135,0.0,0.0,25,-99.99,,,-99.99,WSDL version 423,2013-03-10 01:43:00,
2013-03-09 19:48:00,60.8,24.8,29.88,SE,135,0.0,0.9,25,-99.99,,,-99.99,WSDL version 423,2013-03-10 01:48:00,
2013-03-09 19:51:00,60.9,24.8,29.88,SE,139,0.0,0.9,25,-99.99,,,-99.99,WSDL version 423,2013-03-10 01:51:00,
2013-03-09 19:53:00,61.0,24.9,29.88,SE,135,0.0,0.9,25,-99.99,,,-99.99,WSDL version 423,2013-03-10 01:53:00,
2013-03-09 19:57:00,61.0,25.9,29.88,SE,135,0.2,1.3,28,-99.99,,,-99.99,WSDL version 423,2013-03-10 01:57:00,
2013-03-09 19:58:00,61.0,26.3,29.88,SE,146,0.0,1.3,28,-99.99,,,-99.99,WSDL version 423,2013-03-10 01:58:00,
2013-03-09 20:02:00,61.1,27.8,29.91,SSE,160,0.0,1.3,28,-99.99,,,-99.99,WSDL version 423,2013-03-10 02:02:00,
2013-03-09 20:03:00,61.1,27.8,29.91,SSE,154,0.0,1.3,28,-99.99,,,-99.99,WSDL version 423,2013-03-10 02:03:00,
2013-03-09 20:08:00,61.3,28.0,29.91,SE,131,0.0,1.3,28,-99.99,,,-99.99,WSDL version 423,2013-03-10 02:08:00,
2013-03-09 20:09:00,61.3,28.0,29.91,SSE,152,0.7,1.3,28,-99.99,,,-99.99,WSDL version 423,2013-03-10 02:09:00,
2013-03-09 20:12:00,61.3,28.0,29.91,SE,135,0.0,1.3,28,-99.99,,,-99.99,WSDL version 423,2013-03-10 02:12:00,
2013-03-09 20:14:00,61.3,28.0,29.91,SE,128,0.3,1.3,28,-99.99,,,-99.99,WSDL version 423,2013-03-10 02:14:00,
2013-03-09 20:15:00,61.3,27.9,29.88,SSE,150,0.0,1.3,28,-99.99,,,-99.99,WSDL version 423,2013-03-10 02:15:00,
2013-03-09 20:19:00,61.1,27.8,29.88,SE,140,0.0,1.1,28,-99.99,,,-99.99,WSDL version 423,2013-03-10 02:19:00,
2013-03-09 20:21:00,61.1,27.8,29.88,SE,135,0.0,1.1,28,-99.99,,,-99.99,WSDL version 423,2013-03-10 02:21:00,
2013-03-09 20:26:00,61.0,27.7,29.88,SE,143,0.0,1.1,28,-99.99,,,-99.99,WSDL version 423,2013-03-10 02:26:00,
2013-03-09 20:29:00,61.1,27.8,29.88,SE,131,0.0,0.9,28,-99.99,,,-99.99,WSDL version 423,2013-03-10 02:29:00,
2013-03-09 20:31:00,61.1,27.8,29.88,SE,125,0.0,2.0,28,-99.99,,,-99.99,WSDL version 423,2013-03-10 02:31:00,
2013-03-09 20:34:00,61.1,27.8,29.88,SE,143,0.0,2.0,28,-99.99,,,-99.99,WSDL version 423,2013-03-10 02:34:00,
2013-03-09 20:37:00,61.1,27.8,29.88,ESE,120,0.0,2.0,28,-99.99,,,-99.99,WSDL version 423,2013-03-10 02:37:00,
2013-03-09 20:39:00,61.1,27.8,29.88,SE,138,0.0,2.0,28,-99.99,,,-99.99,WSDL version 423,2013-03-10 02:39:00,
2013-03-09 20:44:00,61.1,27.7,29.88,SE,135,0.2,2.0,28,-99.99,,,-99.99,WSDL version 423,2013-03-10 02:44:00,
2013-03-09 20:47:00,61.0,27.7,29.91,SE,144,0.4,2.0,28,-99.99,,,-99.99,WSDL version 423,2013-03-10 02:47:00,
2013-03-09 20:50:00,61.0,27.7,29.91,SE,127,0.6,2.0,28,-99.99,,,-99.99,WSDL version 423,2013-03-10 02:50:00,
2013-03-09 20:52:00,61.0,27.7,29.91,SE,143,0.0,2.0,28,-99.99,,,-99.99,WSDL version 423,2013-03-10 02:52:00,
2013-03-09 20:57:00,61.0,27.7,29.91,SE,129,0.0,1.6,28,-99.99,,,-99.99,WSDL version 423,2013-03-10 02:57:00,
2013-03-09 21:02:00,61.1,27.7,29.88,SE,139,0.3,2.0,28,-99.99,,,-99.99,WSDL version 423,2013-03-10 03:02:00,
2013-03-09 21:03:00,61.1,27.8,29.88,SE,135,0.9,2.0,28,-99.99,,,-99.99,WSDL version 423,2013-03-10 03:03:00,
2013-03-09 21:07:00,61.1,27.8,29.88,ESE,121,0.4,2.2,28,-99.99,,,-99.99,WSDL version 423,2013-03-10 03:07:00,
2013-03-09 21:08:00,61.1,27.8,29.88,ESE,123,0.9,2.2,28,-99.99,,,-99.99,WSDL version 423,2013-03-10 03:08:00,
2013-03-09 21:12:00,61.2,27.8,29.88,SE,141,0.0,2.2,28,-99.99,,,-99.99,WSDL version 423,2013-03-10 03:12:00,
2013-03-09 21:13:00,61.2,27.9,29.88,SE,138,0.5,2.2,28,-99.99,,,-99.99,WSDL version 423,2013-03-10 03:13:00,
2013-03-09 21:18:00,61.3,28.0,29.88,SE,131,0.2,2.5,28,-99.99,,,-99.99,WSDL version 423,2013-03-10 03:18:00,
2013-03-09 21:19:00,61.4,28.0,29.88,ESE,122,0.2,2.5,28,-99.99,,,-99.99,WSDL version 423,2013-03-10 03:19:00,
2013-03-09 21:23:00,61.5,28.1,29.88,South,176,1.1,2.5,28,-99.99,,,-99.99,WSDL version 423,2013-03-10 03:23:00,
2013-03-09 21:28:00,61.3,28.0,29.88,SE,133,0.6,2.2,28,-99.99,,,-99.99,WSDL version 423,2013-03-10 03:28:00,
2013-03-09 21:33:00,61.3,28.0,29.88,SE,131,1.0,2.9,28,-99.99,,,-99.99,WSDL version 423,2013-03-10 03:33:00,
2013-03-09 21:34:00,61.3,28.0,29.88,SE,129,1.1,2.9,28,-99.99,,,-99.99,WSDL version 423,2013-03-10 03:34:00,
2013-03-09 21:39:00,61.2,27.8,29.88,SE,135,1.2,2.9,28,-99.99,,,-99.99,WSDL version 423,2013-03-10 03:39:00,
2013-03-09 21:40:00,61.2,27.8,29.88,SE,143,1.0,2.9,28,-99.99,,,-99.99,WSDL version 423,2013-03-10 03:40:00,
2013-03-09 21:45:00,61.1,27.8,29.88,South,180,0.4,2.0,28,-99.99,,,-99.99,WSDL version 423,2013-03-10 03:45:00,
2013-03-09 21:46:00,61.1,27.8,29.88,South,180,1.1,2.0,28,-99.99,,,-99.99,WSDL version 423,2013-03-10 03:46:00,
2013-03-09 21:50:00,61.3,27.9,29.88,SSE,150,0.9,2.0,28,-99.99,,,-99.99,WSDL version 423,2013-03-10 03:50:00,
2013-03-09 21:52:00,61.3,28.0,29.88,SE,138,1.0,2.0,28,-99.99,,,-99.99,WSDL version 423,2013-03-10 03:52:00,
2013-03-09 21:57:00,61.3,28.0,29.88,SE,138,1.0,2.0,28,-99.99,,,-99.99,WSDL version 423,2013-03-10 03:57:00,
2013-03-09 21:59:00,61.3,28.0,29.88,SSW,207,0.5,2.0,28,-99.99,,,-99.99,WSDL version 423,2013-03-10 03:59:00,
2013-03-09 22:02:00,61.3,28.0,29.88,SE,135,0.5,1.6,28,-99.99,,,-99.99,WSDL version 423,2013-03-10 04:02:00,
2013-03-09 22:04:00,61.3,28.0,29.88,South,174,1.0,1.6,28,-99.99,,,-99.99,WSDL version 423,2013-03-10 04:04:00,
2013-03-09 22:08:00,61.4,28.3,29.88,SE,135,1.0,2.0,30,-99.99,,,-99.99,WSDL version 423,2013-03-10 04:08:00,
2013-03-09 22:11:00,61.5,28.7,29.88,SSE,162,1.0,2.0,30,-99.99,,,-99.99,WSDL version 423,2013-03-10 04:11:00,
2013-03-09 22:13:00,61.5,29.0,29.88,South,173,0.9,2.0,30,-99.99,,,-99.99,WSDL version 423,2013-03-10 04:13:00,
2013-03-09 22:17:00,61.5,29.8,29.88,SE,143,0.0,2.0,30,-99.99,,,-99.99,WSDL version 423,2013-03-10 04:17:00,
2013-03-09 22:19:00,61.5,29.8,29.88,South,171,0.9,2.0,30,-99.99,,,-99.99,WSDL version 423,2013-03-10 04:19:00,
2013-03-09 22:22:00,61.5,29.8,29.88,SE,143,0.4,3.8,30,-99.99,,,-99.99,WSDL version 423,2013-03-10 04:22:00,
2013-03-09 22:24:00,61.5,29.8,29.88,SE,132,0.6,3.8,30,-99.99,,,-99.99,WSDL version 423,2013-03-10 04:24:00,
2013-03-09 22:29:00,61.4,29.7,29.88,SSE,151,0.0,3.8,30,-99.99,,,-99.99,WSDL version 423,2013-03-10 04:29:00,
2013-03-09 22:31:00,61.3,29.6,29.88,SSE,158,1.2,2.2,30,-99.99,,,-99.99,WSDL version 423,2013-03-10 04:31:00,
2013-03-09 22:36:00,61.3,29.6,29.88,South,186,1.0,2.2,30,-99.99,,,-99.99,WSDL version 423,2013-03-10 04:36:00,
2013-03-09 22:41:00,61.1,29.4,29.88,SSE,161,1.0,2.5,30,-99.99,,,-99.99,WSDL version 423,2013-03-10 04:41:00,
2013-03-09 22:42:00,61.1,29.4,29.88,SSE,154,1.0,2.5,30,-99.99,,,-99.99,WSDL version 423,2013-03-10 04:42:00,
2013-03-09 22:46:00,61.0,29.3,29.85,SSE,149,0.9,2.5,30,-99.99,,,-99.99,WSDL version 423,2013-03-10 04:46:00,
2013-03-09 22:50:00,60.8,29.3,29.85,SSE,167,0.2,1.3,31,-99.99,,,-99.99,WSDL version 423,2013-03-10 04:50:00,
2013-03-09 22:51:00,60.8,29.3,29.85,SE,141,0.4,1.3,30,-99.99,,,-99.99,WSDL version 423,2013-03-10 04:51:00,
2013-03-09 22:55:00,60.6,29.7,29.85,SE,141,0.7,1.3,31,-99.99,,,-99.99,WSDL version 423,2013-03-10 04:55:00,
2013-03-09 22:57:00,60.6,29.8,29.85,SSE,154,0.3,1.6,31,-99.99,,,-99.99,WSDL version 423,2013-03-10 04:57:00,
2013-03-09 23:00:00,60.5,29.7,29.85,SSE,158,0.3,1.6,31,-99.99,,,-99.99,WSDL version 423,2013-03-10 05:00:00,
2013-03-09 23:01:00,60.5,29.7,29.85,SE,144,0.0,1.6,31,-99.99,,,-99.99,WSDL version 423,2013-03-10 05:01:00,
2013-03-09 23:02:00,60.4,29.7,29.85,SE,145,0.0,1.6,31,-99.99,,,-99.99,WSDL version 423,2013-03-10 05:02:00,
2013-03-09 23:06:00,60.4,29.6,29.85,SSE,150,0.9,1.6,31,-99.99,,,-99.99,WSDL version 423,2013-03-10 05:06:00,
2013-03-09 23:07:00,60.4,29.6,29.85,SSE,154,0.5,1.1,31,-99.99,,,-99.99,WSDL version 423,2013-03-10 05:07:00,
2013-03-09 23:09:00,60.3,29.6,29.85,SSE,163,0.0,1.1,31,-99.99,,,-99.99,WSDL version 423,2013-03-10 05:09:00,
2013-03-09 23:12:00,60.2,29.5,29.85,ESE,117,0.0,1.1,31,-99.99,,,-99.99,WSDL version 423,2013-03-10 05:12:00,
2013-03-09 23:14:00,60.2,29.5,29.85,SE,135,0.0,1.1,31,-99.99,,,-99.99,WSDL version 423,2013-03-10 05:14:00,
2013-03-09 23:17:00,60.1,29.4,29.85,South,169,0.0,0.9,31,-99.99,,,-99.99,WSDL version 423,2013-03-10 05:17:00,
2013-03-09 23:18:00,60.0,29.3,29.85,SE,124,0.0,0.9,31,-99.99,,,-99.99,WSDL version 423,2013-03-10 05:18:00,
2013-03-09 23:21:00,59.9,29.2,29.85,SSE,154,0.3,0.9,31,-99.99,,,-99.99,WSDL version 423,2013-03-10 05:21:00,
2013-03-09 23:23:00,59.9,29.2,29.85,SSE,153,0.2,0.9,31,-99.99,,,-99.99,WSDL version 423,2013-03-10 05:23:00,
2013-03-09 23:25:00,59.9,29.2,29.85,South,180,0.0,0.9,31,-99.99,,,-99.99,WSDL version 423,2013-03-10 05:25:00,
2013-03-09 23:28:00,59.9,29.2,29.85,South,185,0.0,1.1,31,-99.99,,,-99.99,WSDL version 423,2013-03-10 05:28:00,
2013-03-09 23:29:00,59.8,29.1,29.85,SSE,165,0.0,1.1,31,-99.99,,,-99.99,WSDL version 423,2013-03-10 05:29:00,
2013-03-09 23:31:00,59.8,29.1,29.85,SE,146,0.0,1.1,31,-99.99,,,-99.99,WSDL version 423,2013-03-10 05:31:00,
2013-03-09 23:34:00,59.9,29.2,29.85,SSE,150,0.6,1.3,31,-99.99,,,-99.99,WSDL version 423,2013-03-10 05:34:00,
2013-03-09 23:36:00,60.0,29.3,29.85,SE,128,0.0,1.3,31,-99.99,,,-99.99,WSDL version 423,2013-03-10 05:36:00,
2013-03-09 23:37:00,60.0,29.3,29.85,SE,140,0.4,1.3,31,-99.99,,,-99.99,WSDL version 423,2013-03-10 05:37:00,
2013-03-09 23:39:00,60.1,29.4,29.85,SSW,207,0.9,2.5,31,-99.99,,,-99.99,WSDL version 423,2013-03-10 05:39:00,
2013-03-09 23:41:00,60.0,29.3,29.85,SSE,154,0.0,2.5,31,-99.99,,,-99.99,WSDL version 423,2013-03-10 05:41:00,
2013-03-09 23:42:00,60.0,29.3,29.85,SE,141,0.0,2.5,31,-99.99,,,-99.99,WSDL version 423,2013-03-10 05:42:00,
2013-03-09 23:44:00,59.9,29.2,29.85,SSE,152,0.0,2.5,31,-99.99,,,-99.99,WSDL version 423,2013-03-10 05:44:00,
2013-03-09 23:49:00,59.9,29.7,29.85,SE,131,0.7,1.3,32,-99.99,,,-99.99,WSDL version 423,2013-03-10 05:49:00,
2013-03-09 23:51:00,59.8,29.9,29.85,SSE,150,0.2,1.3,32,-99.99,,,-99.99,WSDL version 423,2013-03-10 05:51:00,
2013-03-09 23:53:00,59.8,29.9,29.85,South,172,0.0,1.3,32,-99.99,,,-99.99,WSDL version 423,2013-03-10 05:53:00,
2013-03-09 23:56:00,59.6,29.7,29.85,SSW,194,0.0,1.3,32,-99.99,,,-99.99,WSDL version 423,2013-03-10 05:56:00,
2013-03-09 23:57:00,59.5,29.7,29.85,South,188,0.0,1.3,32,-99.99,,,-99.99,WSDL version 423,2013-03-10 05:57:00,